<?xml version="1.0" encoding="UTF-8" standalone="no" ?>
<gpx xmlns="http://www.topografix.com/GPX/1/1" xmlns:xsi="http://www.w3.org/2001/XMLSchema-instance" xsi:schemaLocation="http://www.topografix.com/GPX/1/1 http://www.topografix.com/GPX/1/1/gpx.xsd" version="1.1" creator="VisuGPX - https://www.visugpx.com">
  <metadata>
    <name>Chalabre La regate 11km 650m</name>
    <desc><![CDATA[Chalabre La regate 11km 650m]]></desc>
  </metadata>
  <trk>
    <name><![CDATA[Parcours Nord Enfants]]></name>
    <trkseg>
      <trkpt lat="42.98322" lon="2.00128">
        <ele>391.9</ele>
        <time>2014-02-15T11:59:27.000Z</time>
      </trkpt>
      <trkpt lat="42.9838" lon="2.00093">
        <ele>391.4</ele>
        <time>2014-02-15T11:59:29.000Z</time>
      </trkpt>
      <trkpt lat="42.98455" lon="2.0007">
        <ele>392.8</ele>
        <time>2014-02-15T11:59:30.000Z</time>
      </trkpt>
      <trkpt lat="42.98506" lon="2.00053">
        <ele>392.4</ele>
        <time>2014-02-15T11:59:31.000Z</time>
      </trkpt>
      <trkpt lat="42.98569" lon="2.0002">
        <ele>391.9</ele>
        <time>2014-02-15T11:59:32.000Z</time>
      </trkpt>
      <trkpt lat="42.98581" lon="2.00014">
        <ele>392.4</ele>
        <time>2014-02-15T11:59:33.000Z</time>
      </trkpt>
      <trkpt lat="42.98622" lon="1.99993">
        <ele>392.4</ele>
        <time>2014-02-15T11:59:34.000Z</time>
      </trkpt>
      <trkpt lat="42.98668" lon="1.99936">
        <ele>391.9</ele>
        <time>2014-02-15T11:59:35.000Z</time>
      </trkpt>
      <trkpt lat="42.9868" lon="1.99889">
        <ele>392.4</ele>
        <time>2014-02-15T11:59:36.000Z</time>
      </trkpt>
      <trkpt lat="42.98687" lon="1.99852">
        <ele>392.8</ele>
        <time>2014-02-15T11:59:46.000Z</time>
      </trkpt>
      <trkpt lat="42.98686" lon="1.99798">
        <ele>396.2</ele>
        <time>2014-02-15T12:00:00.000Z</time>
      </trkpt>
      <trkpt lat="42.98684" lon="1.99771">
        <ele>397.2</ele>
        <time>2014-02-15T12:00:06.000Z</time>
      </trkpt>
      <trkpt lat="42.98678" lon="1.99742">
        <ele>399.1</ele>
        <time>2014-02-15T12:00:14.000Z</time>
      </trkpt>
      <trkpt lat="42.98663" lon="1.9971">
        <ele>402.9</ele>
        <time>2014-02-15T12:00:25.000Z</time>
      </trkpt>
      <trkpt lat="42.98655" lon="1.99693">
        <ele>404.4</ele>
        <time>2014-02-15T12:00:33.000Z</time>
      </trkpt>
      <trkpt lat="42.98657" lon="1.99693">
        <ele>404.4</ele>
        <time>2014-02-15T12:00:44.000Z</time>
      </trkpt>
      <trkpt lat="42.98657" lon="1.99693">
        <ele>402.9</ele>
        <time>2014-02-15T12:00:48.000Z</time>
      </trkpt>
      <trkpt lat="42.98651" lon="1.99684">
        <ele>402.9</ele>
        <time>2014-02-15T12:01:07.000Z</time>
      </trkpt>
      <trkpt lat="42.98653" lon="1.99658">
        <ele>405.3</ele>
        <time>2014-02-15T12:01:18.000Z</time>
      </trkpt>
      <trkpt lat="42.98663" lon="1.99633">
        <ele>406.3</ele>
        <time>2014-02-15T12:01:29.000Z</time>
      </trkpt>
      <trkpt lat="42.98664" lon="1.9963">
        <ele>405.8</ele>
        <time>2014-02-15T12:01:30.000Z</time>
      </trkpt>
      <trkpt lat="42.98667" lon="1.99627">
        <ele>407.3</ele>
        <time>2014-02-15T12:01:32.000Z</time>
      </trkpt>
      <trkpt lat="42.9867" lon="1.99624">
        <ele>407.7</ele>
        <time>2014-02-15T12:01:35.000Z</time>
      </trkpt>
      <trkpt lat="42.98671" lon="1.99622">
        <ele>407.3</ele>
        <time>2014-02-15T12:01:36.000Z</time>
      </trkpt>
      <trkpt lat="42.98671" lon="1.9962">
        <ele>407.3</ele>
        <time>2014-02-15T12:01:37.000Z</time>
      </trkpt>
      <trkpt lat="42.98672" lon="1.99618">
        <ele>407.3</ele>
        <time>2014-02-15T12:01:38.000Z</time>
      </trkpt>
      <trkpt lat="42.98673" lon="1.99615">
        <ele>407.7</ele>
        <time>2014-02-15T12:01:39.000Z</time>
      </trkpt>
      <trkpt lat="42.98681" lon="1.99604">
        <ele>410.1</ele>
        <time>2014-02-15T12:01:49.000Z</time>
      </trkpt>
      <trkpt lat="42.98683" lon="1.99601">
        <ele>410.1</ele>
        <time>2014-02-15T12:01:51.000Z</time>
      </trkpt>
      <trkpt lat="42.98683" lon="1.99599">
        <ele>409.7</ele>
        <time>2014-02-15T12:01:52.000Z</time>
      </trkpt>
      <trkpt lat="42.98684" lon="1.99597">
        <ele>411.1</ele>
        <time>2014-02-15T12:01:53.000Z</time>
      </trkpt>
      <trkpt lat="42.98686" lon="1.99596">
        <ele>411.1</ele>
        <time>2014-02-15T12:01:54.000Z</time>
      </trkpt>
      <trkpt lat="42.98691" lon="1.99589">
        <ele>411.1</ele>
        <time>2014-02-15T12:01:58.000Z</time>
      </trkpt>
      <trkpt lat="42.98692" lon="1.99587">
        <ele>411.6</ele>
        <time>2014-02-15T12:01:59.000Z</time>
      </trkpt>
      <trkpt lat="42.98694" lon="1.99584">
        <ele>411.1</ele>
        <time>2014-02-15T12:02:00.000Z</time>
      </trkpt>
      <trkpt lat="42.98695" lon="1.99582">
        <ele>413</ele>
        <time>2014-02-15T12:02:01.000Z</time>
      </trkpt>
      <trkpt lat="42.98697" lon="1.9958">
        <ele>412.5</ele>
        <time>2014-02-15T12:02:02.000Z</time>
      </trkpt>
      <trkpt lat="42.98699" lon="1.99577">
        <ele>413</ele>
        <time>2014-02-15T12:02:03.000Z</time>
      </trkpt>
      <trkpt lat="42.98701" lon="1.99575">
        <ele>413.5</ele>
        <time>2014-02-15T12:02:04.000Z</time>
      </trkpt>
      <trkpt lat="42.98703" lon="1.99572">
        <ele>412.5</ele>
        <time>2014-02-15T12:02:05.000Z</time>
      </trkpt>
      <trkpt lat="42.98715" lon="1.99555">
        <ele>414.5</ele>
        <time>2014-02-15T12:02:12.000Z</time>
      </trkpt>
      <trkpt lat="42.98726" lon="1.99539">
        <ele>416.4</ele>
        <time>2014-02-15T12:02:19.000Z</time>
      </trkpt>
      <trkpt lat="42.98734" lon="1.99518">
        <ele>417.8</ele>
        <time>2014-02-15T12:02:26.000Z</time>
      </trkpt>
      <trkpt lat="42.98735" lon="1.99501">
        <ele>418.8</ele>
        <time>2014-02-15T12:02:31.000Z</time>
      </trkpt>
      <trkpt lat="42.98726" lon="1.99467">
        <ele>421.2</ele>
        <time>2014-02-15T12:02:42.000Z</time>
      </trkpt>
      <trkpt lat="42.98721" lon="1.99455">
        <ele>417.4</ele>
        <time>2014-02-15T12:02:45.000Z</time>
      </trkpt>
      <trkpt lat="42.98719" lon="1.99451">
        <ele>418.3</ele>
        <time>2014-02-15T12:02:46.000Z</time>
      </trkpt>
      <trkpt lat="42.98701" lon="1.99403">
        <ele>418.8</ele>
        <time>2014-02-15T12:02:58.000Z</time>
      </trkpt>
      <trkpt lat="42.98694" lon="1.99384">
        <ele>419.8</ele>
        <time>2014-02-15T12:03:03.000Z</time>
      </trkpt>
      <trkpt lat="42.98692" lon="1.9938">
        <ele>418.3</ele>
        <time>2014-02-15T12:03:04.000Z</time>
      </trkpt>
      <trkpt lat="42.98691" lon="1.99377">
        <ele>419.8</ele>
        <time>2014-02-15T12:03:05.000Z</time>
      </trkpt>
      <trkpt lat="42.98691" lon="1.99373">
        <ele>419.8</ele>
        <time>2014-02-15T12:03:06.000Z</time>
      </trkpt>
      <trkpt lat="42.98691" lon="1.9937">
        <ele>420.2</ele>
        <time>2014-02-15T12:03:07.000Z</time>
      </trkpt>
      <trkpt lat="42.98677" lon="1.99347">
        <ele>423.6</ele>
        <time>2014-02-15T12:05:25.000Z</time>
      </trkpt>
      <trkpt lat="42.98675" lon="1.99347">
        <ele>420.7</ele>
        <time>2014-02-15T12:05:26.000Z</time>
      </trkpt>
      <trkpt lat="42.98673" lon="1.99345">
        <ele>422.2</ele>
        <time>2014-02-15T12:05:27.000Z</time>
      </trkpt>
      <trkpt lat="42.98672" lon="1.99343">
        <ele>423.1</ele>
        <time>2014-02-15T12:05:28.000Z</time>
      </trkpt>
      <trkpt lat="42.98654" lon="1.99307">
        <ele>425.5</ele>
        <time>2014-02-15T12:05:42.000Z</time>
      </trkpt>
      <trkpt lat="42.98634" lon="1.99259">
        <ele>425.5</ele>
        <time>2014-02-15T12:05:55.000Z</time>
      </trkpt>
      <trkpt lat="42.98629" lon="1.99248">
        <ele>424.1</ele>
        <time>2014-02-15T12:05:57.000Z</time>
      </trkpt>
      <trkpt lat="42.98617" lon="1.99227">
        <ele>424.6</ele>
        <time>2014-02-15T12:06:01.000Z</time>
      </trkpt>
      <trkpt lat="42.98614" lon="1.99222">
        <ele>424.6</ele>
        <time>2014-02-15T12:06:02.000Z</time>
      </trkpt>
      <trkpt lat="42.98611" lon="1.99218">
        <ele>423.6</ele>
        <time>2014-02-15T12:06:03.000Z</time>
      </trkpt>
      <trkpt lat="42.9859" lon="1.99187">
        <ele>425</ele>
        <time>2014-02-15T12:06:12.000Z</time>
      </trkpt>
      <trkpt lat="42.98564" lon="1.99148">
        <ele>425</ele>
        <time>2014-02-15T12:06:23.000Z</time>
      </trkpt>
      <trkpt lat="42.98547" lon="1.99115">
        <ele>428.9</ele>
        <time>2014-02-15T12:06:31.000Z</time>
      </trkpt>
      <trkpt lat="42.98544" lon="1.99107">
        <ele>430.3</ele>
        <time>2014-02-15T12:06:33.000Z</time>
      </trkpt>
      <trkpt lat="42.98532" lon="1.99064">
        <ele>433.7</ele>
        <time>2014-02-15T12:06:44.000Z</time>
      </trkpt>
      <trkpt lat="42.98531" lon="1.9906">
        <ele>434.2</ele>
        <time>2014-02-15T12:06:45.000Z</time>
      </trkpt>
      <trkpt lat="42.98526" lon="1.99015">
        <ele>438.5</ele>
        <time>2014-02-15T12:06:57.000Z</time>
      </trkpt>
      <trkpt lat="42.98518" lon="1.98964">
        <ele>437.5</ele>
        <time>2014-02-15T12:07:09.000Z</time>
      </trkpt>
      <trkpt lat="42.98511" lon="1.98932">
        <ele>437.5</ele>
        <time>2014-02-15T12:07:19.000Z</time>
      </trkpt>
      <trkpt lat="42.9851" lon="1.98936">
        <ele>438</ele>
        <time>2014-02-15T12:07:24.000Z</time>
      </trkpt>
      <trkpt lat="42.98514" lon="1.98951">
        <ele>437.5</ele>
        <time>2014-02-15T12:07:29.000Z</time>
      </trkpt>
      <trkpt lat="42.98515" lon="1.98952">
        <ele>437.1</ele>
        <time>2014-02-15T12:07:30.000Z</time>
      </trkpt>
      <trkpt lat="42.98515" lon="1.98947">
        <ele>437.5</ele>
        <time>2014-02-15T12:07:35.000Z</time>
      </trkpt>
      <trkpt lat="42.98514" lon="1.98944">
        <ele>436.6</ele>
        <time>2014-02-15T12:07:36.000Z</time>
      </trkpt>
      <trkpt lat="42.98513" lon="1.98942">
        <ele>437.1</ele>
        <time>2014-02-15T12:07:37.000Z</time>
      </trkpt>
      <trkpt lat="42.98512" lon="1.9894">
        <ele>437.5</ele>
        <time>2014-02-15T12:07:38.000Z</time>
      </trkpt>
      <trkpt lat="42.9851" lon="1.98938">
        <ele>437.1</ele>
        <time>2014-02-15T12:07:39.000Z</time>
      </trkpt>
      <trkpt lat="42.98509" lon="1.98937">
        <ele>438</ele>
        <time>2014-02-15T12:07:40.000Z</time>
      </trkpt>
      <trkpt lat="42.98509" lon="1.98936">
        <ele>439</ele>
        <time>2014-02-15T12:07:41.000Z</time>
      </trkpt>
      <trkpt lat="42.98508" lon="1.98933">
        <ele>438</ele>
        <time>2014-02-15T12:07:42.000Z</time>
      </trkpt>
      <trkpt lat="42.98507" lon="1.98931">
        <ele>439.5</ele>
        <time>2014-02-15T12:07:43.000Z</time>
      </trkpt>
      <trkpt lat="42.98505" lon="1.98929">
        <ele>439.5</ele>
        <time>2014-02-15T12:07:44.000Z</time>
      </trkpt>
      <trkpt lat="42.98504" lon="1.98927">
        <ele>440.4</ele>
        <time>2014-02-15T12:07:45.000Z</time>
      </trkpt>
      <trkpt lat="42.98503" lon="1.98924">
        <ele>439.5</ele>
        <time>2014-02-15T12:07:46.000Z</time>
      </trkpt>
      <trkpt lat="42.98502" lon="1.98921">
        <ele>439.9</ele>
        <time>2014-02-15T12:07:47.000Z</time>
      </trkpt>
      <trkpt lat="42.98501" lon="1.98913">
        <ele>440.9</ele>
        <time>2014-02-15T12:07:50.000Z</time>
      </trkpt>
      <trkpt lat="42.98501" lon="1.98911">
        <ele>440.9</ele>
        <time>2014-02-15T12:07:51.000Z</time>
      </trkpt>
      <trkpt lat="42.98496" lon="1.98904">
        <ele>443.8</ele>
        <time>2014-02-15T12:07:56.000Z</time>
      </trkpt>
      <trkpt lat="42.98496" lon="1.98903">
        <ele>442.3</ele>
        <time>2014-02-15T12:07:57.000Z</time>
      </trkpt>
      <trkpt lat="42.98495" lon="1.98896">
        <ele>441.9</ele>
        <time>2014-02-15T12:08:02.000Z</time>
      </trkpt>
      <trkpt lat="42.98494" lon="1.98894">
        <ele>442.8</ele>
        <time>2014-02-15T12:08:03.000Z</time>
      </trkpt>
      <trkpt lat="42.98493" lon="1.98891">
        <ele>443.8</ele>
        <time>2014-02-15T12:08:04.000Z</time>
      </trkpt>
      <trkpt lat="42.98491" lon="1.98888">
        <ele>444.3</ele>
        <time>2014-02-15T12:08:05.000Z</time>
      </trkpt>
      <trkpt lat="42.9849" lon="1.98886">
        <ele>443.3</ele>
        <time>2014-02-15T12:08:06.000Z</time>
      </trkpt>
      <trkpt lat="42.98489" lon="1.98884">
        <ele>443.3</ele>
        <time>2014-02-15T12:08:07.000Z</time>
      </trkpt>
      <trkpt lat="42.98487" lon="1.98883">
        <ele>445.7</ele>
        <time>2014-02-15T12:08:08.000Z</time>
      </trkpt>
      <trkpt lat="42.98485" lon="1.98881">
        <ele>444.8</ele>
        <time>2014-02-15T12:08:09.000Z</time>
      </trkpt>
      <trkpt lat="42.98481" lon="1.98872">
        <ele>446.2</ele>
        <time>2014-02-15T12:08:13.000Z</time>
      </trkpt>
      <trkpt lat="42.9847" lon="1.98844">
        <ele>448.1</ele>
        <time>2014-02-15T12:08:25.000Z</time>
      </trkpt>
      <trkpt lat="42.98468" lon="1.98839">
        <ele>450</ele>
        <time>2014-02-15T12:08:27.000Z</time>
      </trkpt>
      <trkpt lat="42.98468" lon="1.98836">
        <ele>447.6</ele>
        <time>2014-02-15T12:08:28.000Z</time>
      </trkpt>
      <trkpt lat="42.98468" lon="1.98833">
        <ele>447.6</ele>
        <time>2014-02-15T12:08:29.000Z</time>
      </trkpt>
      <trkpt lat="42.98467" lon="1.98829">
        <ele>447.6</ele>
        <time>2014-02-15T12:08:30.000Z</time>
      </trkpt>
      <trkpt lat="42.98467" lon="1.98827">
        <ele>448.1</ele>
        <time>2014-02-15T12:08:31.000Z</time>
      </trkpt>
      <trkpt lat="42.98466" lon="1.98824">
        <ele>447.2</ele>
        <time>2014-02-15T12:08:32.000Z</time>
      </trkpt>
      <trkpt lat="42.98465" lon="1.98822">
        <ele>446.2</ele>
        <time>2014-02-15T12:08:33.000Z</time>
      </trkpt>
      <trkpt lat="42.98465" lon="1.98819">
        <ele>449.1</ele>
        <time>2014-02-15T12:08:34.000Z</time>
      </trkpt>
      <trkpt lat="42.98464" lon="1.98817">
        <ele>448.6</ele>
        <time>2014-02-15T12:08:35.000Z</time>
      </trkpt>
      <trkpt lat="42.98463" lon="1.98816">
        <ele>447.6</ele>
        <time>2014-02-15T12:08:36.000Z</time>
      </trkpt>
      <trkpt lat="42.98463" lon="1.98814">
        <ele>447.6</ele>
        <time>2014-02-15T12:08:37.000Z</time>
      </trkpt>
      <trkpt lat="42.98463" lon="1.98812">
        <ele>447.2</ele>
        <time>2014-02-15T12:08:38.000Z</time>
      </trkpt>
      <trkpt lat="42.98465" lon="1.98789">
        <ele>448.6</ele>
        <time>2014-02-15T12:08:49.000Z</time>
      </trkpt>
      <trkpt lat="42.98464" lon="1.9878">
        <ele>448.1</ele>
        <time>2014-02-15T12:09:01.000Z</time>
      </trkpt>
      <trkpt lat="42.98464" lon="1.98779">
        <ele>449.6</ele>
        <time>2014-02-15T12:09:07.000Z</time>
      </trkpt>
      <trkpt lat="42.98464" lon="1.98779">
        <ele>448.6</ele>
        <time>2014-02-15T12:09:14.000Z</time>
      </trkpt>
      <trkpt lat="42.98464" lon="1.98779">
        <ele>448.1</ele>
        <time>2014-02-15T12:09:27.000Z</time>
      </trkpt>
      <trkpt lat="42.98464" lon="1.98779">
        <ele>449.1</ele>
        <time>2014-02-15T12:09:45.000Z</time>
      </trkpt>
      <trkpt lat="42.98464" lon="1.98779">
        <ele>448.1</ele>
        <time>2014-02-15T12:09:47.000Z</time>
      </trkpt>
      <trkpt lat="42.98464" lon="1.98779">
        <ele>447.6</ele>
        <time>2014-02-15T12:09:54.000Z</time>
      </trkpt>
      <trkpt lat="42.98464" lon="1.98779">
        <ele>451</ele>
        <time>2014-02-15T12:10:28.000Z</time>
      </trkpt>
      <trkpt lat="42.98464" lon="1.98779">
        <ele>447.6</ele>
        <time>2014-02-15T12:10:47.000Z</time>
      </trkpt>
      <trkpt lat="42.98464" lon="1.98778">
        <ele>447.2</ele>
        <time>2014-02-15T12:11:12.000Z</time>
      </trkpt>
      <trkpt lat="42.98464" lon="1.98778">
        <ele>450.5</ele>
        <time>2014-02-15T12:11:41.000Z</time>
      </trkpt>
      <trkpt lat="42.98464" lon="1.98778">
        <ele>450</ele>
        <time>2014-02-15T12:11:42.000Z</time>
      </trkpt>
      <trkpt lat="42.98464" lon="1.98778">
        <ele>449.1</ele>
        <time>2014-02-15T12:11:44.000Z</time>
      </trkpt>
      <trkpt lat="42.98464" lon="1.98778">
        <ele>448.1</ele>
        <time>2014-02-15T12:12:07.000Z</time>
      </trkpt>
      <trkpt lat="42.98464" lon="1.98778">
        <ele>449.6</ele>
        <time>2014-02-15T12:12:14.000Z</time>
      </trkpt>
      <trkpt lat="42.98465" lon="1.98778">
        <ele>449.1</ele>
        <time>2014-02-15T12:12:40.000Z</time>
      </trkpt>
      <trkpt lat="42.98465" lon="1.98778">
        <ele>448.6</ele>
        <time>2014-02-15T12:12:45.000Z</time>
      </trkpt>
      <trkpt lat="42.98465" lon="1.98778">
        <ele>449.1</ele>
        <time>2014-02-15T12:13:30.000Z</time>
      </trkpt>
      <trkpt lat="42.98465" lon="1.98778">
        <ele>448.6</ele>
        <time>2014-02-15T12:14:19.000Z</time>
      </trkpt>
      <trkpt lat="42.98465" lon="1.98778">
        <ele>451.5</ele>
        <time>2014-02-15T12:15:25.000Z</time>
      </trkpt>
      <trkpt lat="42.98465" lon="1.98777">
        <ele>450.5</ele>
        <time>2014-02-15T12:16:08.000Z</time>
      </trkpt>
      <trkpt lat="42.98463" lon="1.98772">
        <ele>450.5</ele>
        <time>2014-02-15T12:16:47.000Z</time>
      </trkpt>
      <trkpt lat="42.98462" lon="1.98767">
        <ele>449.6</ele>
        <time>2014-02-15T12:16:52.000Z</time>
      </trkpt>
      <trkpt lat="42.98453" lon="1.98735">
        <ele>450.5</ele>
        <time>2014-02-15T12:17:06.000Z</time>
      </trkpt>
      <trkpt lat="42.98452" lon="1.98731">
        <ele>450.5</ele>
        <time>2014-02-15T12:17:08.000Z</time>
      </trkpt>
      <trkpt lat="42.98445" lon="1.98709">
        <ele>452.4</ele>
        <time>2014-02-15T12:17:19.000Z</time>
      </trkpt>
      <trkpt lat="42.98437" lon="1.98685">
        <ele>453.9</ele>
        <time>2014-02-15T12:17:31.000Z</time>
      </trkpt>
      <trkpt lat="42.98436" lon="1.98684">
        <ele>453.4</ele>
        <time>2014-02-15T12:17:32.000Z</time>
      </trkpt>
      <trkpt lat="42.98435" lon="1.98681">
        <ele>453.9</ele>
        <time>2014-02-15T12:17:33.000Z</time>
      </trkpt>
      <trkpt lat="42.98423" lon="1.9866">
        <ele>456.8</ele>
        <time>2014-02-15T12:17:42.000Z</time>
      </trkpt>
      <trkpt lat="42.98419" lon="1.98643">
        <ele>457.7</ele>
        <time>2014-02-15T12:17:49.000Z</time>
      </trkpt>
      <trkpt lat="42.98419" lon="1.98641">
        <ele>456.8</ele>
        <time>2014-02-15T12:17:50.000Z</time>
      </trkpt>
      <trkpt lat="42.98419" lon="1.98638">
        <ele>457.2</ele>
        <time>2014-02-15T12:17:51.000Z</time>
      </trkpt>
      <trkpt lat="42.98419" lon="1.98636">
        <ele>457.2</ele>
        <time>2014-02-15T12:17:52.000Z</time>
      </trkpt>
      <trkpt lat="42.98419" lon="1.98633">
        <ele>457.2</ele>
        <time>2014-02-15T12:17:53.000Z</time>
      </trkpt>
      <trkpt lat="42.98419" lon="1.9863">
        <ele>457.7</ele>
        <time>2014-02-15T12:17:54.000Z</time>
      </trkpt>
      <trkpt lat="42.98419" lon="1.98627">
        <ele>455.8</ele>
        <time>2014-02-15T12:17:55.000Z</time>
      </trkpt>
      <trkpt lat="42.98419" lon="1.98624">
        <ele>456.3</ele>
        <time>2014-02-15T12:17:56.000Z</time>
      </trkpt>
      <trkpt lat="42.98419" lon="1.98622">
        <ele>457.2</ele>
        <time>2014-02-15T12:17:57.000Z</time>
      </trkpt>
      <trkpt lat="42.98418" lon="1.98619">
        <ele>458.2</ele>
        <time>2014-02-15T12:17:58.000Z</time>
      </trkpt>
      <trkpt lat="42.98414" lon="1.98606">
        <ele>456.3</ele>
        <time>2014-02-15T12:18:04.000Z</time>
      </trkpt>
      <trkpt lat="42.98414" lon="1.98603">
        <ele>456.8</ele>
        <time>2014-02-15T12:18:05.000Z</time>
      </trkpt>
      <trkpt lat="42.98413" lon="1.98602">
        <ele>456.3</ele>
        <time>2014-02-15T12:18:06.000Z</time>
      </trkpt>
      <trkpt lat="42.98412" lon="1.986">
        <ele>456.3</ele>
        <time>2014-02-15T12:18:07.000Z</time>
      </trkpt>
      <trkpt lat="42.98412" lon="1.98597">
        <ele>455.8</ele>
        <time>2014-02-15T12:18:08.000Z</time>
      </trkpt>
      <trkpt lat="42.98411" lon="1.98595">
        <ele>455.3</ele>
        <time>2014-02-15T12:18:09.000Z</time>
      </trkpt>
      <trkpt lat="42.98408" lon="1.98588">
        <ele>455.3</ele>
        <time>2014-02-15T12:18:13.000Z</time>
      </trkpt>
      <trkpt lat="42.98408" lon="1.98586">
        <ele>454.4</ele>
        <time>2014-02-15T12:18:14.000Z</time>
      </trkpt>
      <trkpt lat="42.98407" lon="1.98583">
        <ele>456.3</ele>
        <time>2014-02-15T12:18:15.000Z</time>
      </trkpt>
      <trkpt lat="42.98406" lon="1.98575">
        <ele>455.8</ele>
        <time>2014-02-15T12:18:19.000Z</time>
      </trkpt>
      <trkpt lat="42.98405" lon="1.98572">
        <ele>456.3</ele>
        <time>2014-02-15T12:18:21.000Z</time>
      </trkpt>
      <trkpt lat="42.98405" lon="1.98571">
        <ele>455.3</ele>
        <time>2014-02-15T12:18:22.000Z</time>
      </trkpt>
      <trkpt lat="42.98405" lon="1.98569">
        <ele>455.8</ele>
        <time>2014-02-15T12:18:23.000Z</time>
      </trkpt>
      <trkpt lat="42.98403" lon="1.98559">
        <ele>455.8</ele>
        <time>2014-02-15T12:18:38.000Z</time>
      </trkpt>
      <trkpt lat="42.98402" lon="1.98553">
        <ele>454.8</ele>
        <time>2014-02-15T12:18:52.000Z</time>
      </trkpt>
      <trkpt lat="42.98402" lon="1.98552">
        <ele>456.8</ele>
        <time>2014-02-15T12:18:54.000Z</time>
      </trkpt>
      <trkpt lat="42.98401" lon="1.9855">
        <ele>454.4</ele>
        <time>2014-02-15T12:18:57.000Z</time>
      </trkpt>
      <trkpt lat="42.98401" lon="1.9855">
        <ele>455.3</ele>
        <time>2014-02-15T12:19:27.000Z</time>
      </trkpt>
      <trkpt lat="42.98401" lon="1.9855">
        <ele>454.4</ele>
        <time>2014-02-15T12:19:31.000Z</time>
      </trkpt>
      <trkpt lat="42.98401" lon="1.9855">
        <ele>456.3</ele>
        <time>2014-02-15T12:19:33.000Z</time>
      </trkpt>
      <trkpt lat="42.98401" lon="1.9855">
        <ele>454.8</ele>
        <time>2014-02-15T12:20:15.000Z</time>
      </trkpt>
      <trkpt lat="42.98401" lon="1.9855">
        <ele>455.3</ele>
        <time>2014-02-15T12:20:28.000Z</time>
      </trkpt>
      <trkpt lat="42.98401" lon="1.9855">
        <ele>455.8</ele>
        <time>2014-02-15T12:20:49.000Z</time>
      </trkpt>
      <trkpt lat="42.98401" lon="1.9855">
        <ele>455.8</ele>
        <time>2014-02-15T12:20:53.000Z</time>
      </trkpt>
      <trkpt lat="42.98401" lon="1.9855">
        <ele>454.4</ele>
        <time>2014-02-15T12:21:18.000Z</time>
      </trkpt>
      <trkpt lat="42.98401" lon="1.9855">
        <ele>454.8</ele>
        <time>2014-02-15T12:21:24.000Z</time>
      </trkpt>
      <trkpt lat="42.98401" lon="1.98549">
        <ele>454.8</ele>
        <time>2014-02-15T12:21:35.000Z</time>
      </trkpt>
      <trkpt lat="42.98398" lon="1.98546">
        <ele>454.8</ele>
        <time>2014-02-15T12:22:33.000Z</time>
      </trkpt>
      <trkpt lat="42.98397" lon="1.98544">
        <ele>454.8</ele>
        <time>2014-02-15T12:22:50.000Z</time>
      </trkpt>
      <trkpt lat="42.98395" lon="1.9853">
        <ele>455.3</ele>
        <time>2014-02-15T12:22:57.000Z</time>
      </trkpt>
      <trkpt lat="42.98392" lon="1.98521">
        <ele>456.3</ele>
        <time>2014-02-15T12:23:01.000Z</time>
      </trkpt>
      <trkpt lat="42.98391" lon="1.98518">
        <ele>455.8</ele>
        <time>2014-02-15T12:23:02.000Z</time>
      </trkpt>
      <trkpt lat="42.9839" lon="1.98515">
        <ele>456.3</ele>
        <time>2014-02-15T12:23:03.000Z</time>
      </trkpt>
      <trkpt lat="42.98389" lon="1.98513">
        <ele>456.3</ele>
        <time>2014-02-15T12:23:04.000Z</time>
      </trkpt>
      <trkpt lat="42.98389" lon="1.9851">
        <ele>457.2</ele>
        <time>2014-02-15T12:23:05.000Z</time>
      </trkpt>
      <trkpt lat="42.98389" lon="1.98507">
        <ele>455.8</ele>
        <time>2014-02-15T12:23:06.000Z</time>
      </trkpt>
      <trkpt lat="42.98389" lon="1.98504">
        <ele>457.2</ele>
        <time>2014-02-15T12:23:07.000Z</time>
      </trkpt>
      <trkpt lat="42.98389" lon="1.98473">
        <ele>456.3</ele>
        <time>2014-02-15T12:23:16.000Z</time>
      </trkpt>
      <trkpt lat="42.9839" lon="1.9847">
        <ele>456.3</ele>
        <time>2014-02-15T12:23:17.000Z</time>
      </trkpt>
      <trkpt lat="42.9839" lon="1.98467">
        <ele>457.2</ele>
        <time>2014-02-15T12:23:18.000Z</time>
      </trkpt>
      <trkpt lat="42.98391" lon="1.98463">
        <ele>455.8</ele>
        <time>2014-02-15T12:23:20.000Z</time>
      </trkpt>
      <trkpt lat="42.98392" lon="1.98461">
        <ele>454.8</ele>
        <time>2014-02-15T12:23:21.000Z</time>
      </trkpt>
      <trkpt lat="42.98393" lon="1.98457">
        <ele>455.3</ele>
        <time>2014-02-15T12:23:22.000Z</time>
      </trkpt>
      <trkpt lat="42.98394" lon="1.98454">
        <ele>456.3</ele>
        <time>2014-02-15T12:23:24.000Z</time>
      </trkpt>
      <trkpt lat="42.98396" lon="1.9845">
        <ele>455.8</ele>
        <time>2014-02-15T12:23:31.000Z</time>
      </trkpt>
      <trkpt lat="42.98397" lon="1.98449">
        <ele>456.8</ele>
        <time>2014-02-15T12:23:42.000Z</time>
      </trkpt>
      <trkpt lat="42.98398" lon="1.98448">
        <ele>455.8</ele>
        <time>2014-02-15T12:23:43.000Z</time>
      </trkpt>
      <trkpt lat="42.984" lon="1.98446">
        <ele>455.8</ele>
        <time>2014-02-15T12:23:44.000Z</time>
      </trkpt>
      <trkpt lat="42.98401" lon="1.98443">
        <ele>454.8</ele>
        <time>2014-02-15T12:23:45.000Z</time>
      </trkpt>
      <trkpt lat="42.98402" lon="1.98439">
        <ele>455.8</ele>
        <time>2014-02-15T12:23:46.000Z</time>
      </trkpt>
      <trkpt lat="42.98414" lon="1.98415">
        <ele>457.7</ele>
        <time>2014-02-15T12:23:55.000Z</time>
      </trkpt>
      <trkpt lat="42.98414" lon="1.98413">
        <ele>458.2</ele>
        <time>2014-02-15T12:23:56.000Z</time>
      </trkpt>
      <trkpt lat="42.98415" lon="1.98411">
        <ele>458.7</ele>
        <time>2014-02-15T12:23:57.000Z</time>
      </trkpt>
      <trkpt lat="42.98416" lon="1.98408">
        <ele>459.7</ele>
        <time>2014-02-15T12:23:58.000Z</time>
      </trkpt>
      <trkpt lat="42.98416" lon="1.98405">
        <ele>458.7</ele>
        <time>2014-02-15T12:23:59.000Z</time>
      </trkpt>
      <trkpt lat="42.98416" lon="1.98403">
        <ele>458.7</ele>
        <time>2014-02-15T12:24:00.000Z</time>
      </trkpt>
      <trkpt lat="42.98418" lon="1.984">
        <ele>458.7</ele>
        <time>2014-02-15T12:24:01.000Z</time>
      </trkpt>
      <trkpt lat="42.98419" lon="1.98397">
        <ele>458.7</ele>
        <time>2014-02-15T12:24:02.000Z</time>
      </trkpt>
      <trkpt lat="42.98419" lon="1.98394">
        <ele>458.7</ele>
        <time>2014-02-15T12:24:03.000Z</time>
      </trkpt>
      <trkpt lat="42.9842" lon="1.98391">
        <ele>459.2</ele>
        <time>2014-02-15T12:24:04.000Z</time>
      </trkpt>
      <trkpt lat="42.98421" lon="1.98387">
        <ele>458.7</ele>
        <time>2014-02-15T12:24:05.000Z</time>
      </trkpt>
      <trkpt lat="42.98422" lon="1.98384">
        <ele>458.7</ele>
        <time>2014-02-15T12:24:06.000Z</time>
      </trkpt>
      <trkpt lat="42.98423" lon="1.9838">
        <ele>459.7</ele>
        <time>2014-02-15T12:24:07.000Z</time>
      </trkpt>
      <trkpt lat="42.98424" lon="1.98378">
        <ele>459.2</ele>
        <time>2014-02-15T12:24:08.000Z</time>
      </trkpt>
      <trkpt lat="42.98425" lon="1.98375">
        <ele>459.2</ele>
        <time>2014-02-15T12:24:09.000Z</time>
      </trkpt>
      <trkpt lat="42.98425" lon="1.98373">
        <ele>459.7</ele>
        <time>2014-02-15T12:24:10.000Z</time>
      </trkpt>
      <trkpt lat="42.98426" lon="1.9837">
        <ele>458.7</ele>
        <time>2014-02-15T12:24:11.000Z</time>
      </trkpt>
      <trkpt lat="42.98426" lon="1.98366">
        <ele>459.2</ele>
        <time>2014-02-15T12:24:12.000Z</time>
      </trkpt>
      <trkpt lat="42.98426" lon="1.98363">
        <ele>459.7</ele>
        <time>2014-02-15T12:24:13.000Z</time>
      </trkpt>
      <trkpt lat="42.98427" lon="1.9836">
        <ele>460.1</ele>
        <time>2014-02-15T12:24:14.000Z</time>
      </trkpt>
      <trkpt lat="42.98427" lon="1.98358">
        <ele>459.2</ele>
        <time>2014-02-15T12:24:15.000Z</time>
      </trkpt>
      <trkpt lat="42.98428" lon="1.98355">
        <ele>460.1</ele>
        <time>2014-02-15T12:24:16.000Z</time>
      </trkpt>
      <trkpt lat="42.98428" lon="1.98353">
        <ele>459.7</ele>
        <time>2014-02-15T12:24:17.000Z</time>
      </trkpt>
      <trkpt lat="42.98429" lon="1.9835">
        <ele>459.7</ele>
        <time>2014-02-15T12:24:18.000Z</time>
      </trkpt>
      <trkpt lat="42.9843" lon="1.98346">
        <ele>460.1</ele>
        <time>2014-02-15T12:24:19.000Z</time>
      </trkpt>
      <trkpt lat="42.98431" lon="1.98343">
        <ele>459.7</ele>
        <time>2014-02-15T12:24:20.000Z</time>
      </trkpt>
      <trkpt lat="42.98431" lon="1.9834">
        <ele>460.6</ele>
        <time>2014-02-15T12:24:21.000Z</time>
      </trkpt>
      <trkpt lat="42.98427" lon="1.98316">
        <ele>462.1</ele>
        <time>2014-02-15T12:24:30.000Z</time>
      </trkpt>
      <trkpt lat="42.98424" lon="1.98304">
        <ele>462.5</ele>
        <time>2014-02-15T12:24:35.000Z</time>
      </trkpt>
      <trkpt lat="42.98423" lon="1.98301">
        <ele>462.5</ele>
        <time>2014-02-15T12:24:36.000Z</time>
      </trkpt>
      <trkpt lat="42.98423" lon="1.98298">
        <ele>461.1</ele>
        <time>2014-02-15T12:24:37.000Z</time>
      </trkpt>
      <trkpt lat="42.98422" lon="1.98295">
        <ele>463</ele>
        <time>2014-02-15T12:24:38.000Z</time>
      </trkpt>
      <trkpt lat="42.98422" lon="1.98292">
        <ele>463.5</ele>
        <time>2014-02-15T12:24:39.000Z</time>
      </trkpt>
      <trkpt lat="42.98422" lon="1.9829">
        <ele>463.5</ele>
        <time>2014-02-15T12:24:40.000Z</time>
      </trkpt>
      <trkpt lat="42.98423" lon="1.98287">
        <ele>463</ele>
        <time>2014-02-15T12:24:41.000Z</time>
      </trkpt>
      <trkpt lat="42.98423" lon="1.98284">
        <ele>462.5</ele>
        <time>2014-02-15T12:24:42.000Z</time>
      </trkpt>
      <trkpt lat="42.98423" lon="1.9828">
        <ele>463</ele>
        <time>2014-02-15T12:24:45.000Z</time>
      </trkpt>
      <trkpt lat="42.98427" lon="1.98278">
        <ele>460.6</ele>
        <time>2014-02-15T12:24:48.000Z</time>
      </trkpt>
      <trkpt lat="42.98432" lon="1.98273">
        <ele>459.2</ele>
        <time>2014-02-15T12:24:52.000Z</time>
      </trkpt>
      <trkpt lat="42.98437" lon="1.98264">
        <ele>458.2</ele>
        <time>2014-02-15T12:24:57.000Z</time>
      </trkpt>
      <trkpt lat="42.98439" lon="1.9826">
        <ele>456.8</ele>
        <time>2014-02-15T12:25:00.000Z</time>
      </trkpt>
      <trkpt lat="42.98441" lon="1.98254">
        <ele>457.2</ele>
        <time>2014-02-15T12:25:06.000Z</time>
      </trkpt>
      <trkpt lat="42.98443" lon="1.9824">
        <ele>459.7</ele>
        <time>2014-02-15T12:25:18.000Z</time>
      </trkpt>
      <trkpt lat="42.98444" lon="1.98238">
        <ele>459.2</ele>
        <time>2014-02-15T12:25:19.000Z</time>
      </trkpt>
      <trkpt lat="42.98446" lon="1.98235">
        <ele>459.7</ele>
        <time>2014-02-15T12:25:22.000Z</time>
      </trkpt>
      <trkpt lat="42.98454" lon="1.98224">
        <ele>460.6</ele>
        <time>2014-02-15T12:25:35.000Z</time>
      </trkpt>
      <trkpt lat="42.98459" lon="1.98213">
        <ele>462.5</ele>
        <time>2014-02-15T12:25:46.000Z</time>
      </trkpt>
      <trkpt lat="42.98462" lon="1.98207">
        <ele>464.9</ele>
        <time>2014-02-15T12:25:58.000Z</time>
      </trkpt>
      <trkpt lat="42.98462" lon="1.98206">
        <ele>463</ele>
        <time>2014-02-15T12:26:30.000Z</time>
      </trkpt>
      <trkpt lat="42.98461" lon="1.98204">
        <ele>464.5</ele>
        <time>2014-02-15T12:26:49.000Z</time>
      </trkpt>
      <trkpt lat="42.98461" lon="1.98189">
        <ele>463.5</ele>
        <time>2014-02-15T12:26:55.000Z</time>
      </trkpt>
      <trkpt lat="42.98461" lon="1.98181">
        <ele>464.5</ele>
        <time>2014-02-15T12:26:58.000Z</time>
      </trkpt>
      <trkpt lat="42.98459" lon="1.98169">
        <ele>466.4</ele>
        <time>2014-02-15T12:27:02.000Z</time>
      </trkpt>
      <trkpt lat="42.98461" lon="1.98149">
        <ele>466.4</ele>
        <time>2014-02-15T12:27:11.000Z</time>
      </trkpt>
      <trkpt lat="42.98455" lon="1.98132">
        <ele>467.8</ele>
        <time>2014-02-15T12:27:21.000Z</time>
      </trkpt>
      <trkpt lat="42.98452" lon="1.98125">
        <ele>464.9</ele>
        <time>2014-02-15T12:27:25.000Z</time>
      </trkpt>
      <trkpt lat="42.98445" lon="1.98105">
        <ele>464.9</ele>
        <time>2014-02-15T12:27:37.000Z</time>
      </trkpt>
      <trkpt lat="42.98438" lon="1.98094">
        <ele>464.9</ele>
        <time>2014-02-15T12:27:50.000Z</time>
      </trkpt>
      <trkpt lat="42.98436" lon="1.98088">
        <ele>464.9</ele>
        <time>2014-02-15T12:27:54.000Z</time>
      </trkpt>
      <trkpt lat="42.98431" lon="1.98077">
        <ele>465.9</ele>
        <time>2014-02-15T12:28:02.000Z</time>
      </trkpt>
      <trkpt lat="42.98428" lon="1.98066">
        <ele>468.3</ele>
        <time>2014-02-15T12:28:14.000Z</time>
      </trkpt>
      <trkpt lat="42.98429" lon="1.98064">
        <ele>468.3</ele>
        <time>2014-02-15T12:28:32.000Z</time>
      </trkpt>
      <trkpt lat="42.98429" lon="1.98064">
        <ele>465.9</ele>
        <time>2014-02-15T12:28:47.000Z</time>
      </trkpt>
      <trkpt lat="42.98429" lon="1.98064">
        <ele>467.3</ele>
        <time>2014-02-15T12:28:54.000Z</time>
      </trkpt>
      <trkpt lat="42.98428" lon="1.98062">
        <ele>466.4</ele>
        <time>2014-02-15T12:29:00.000Z</time>
      </trkpt>
      <trkpt lat="42.98423" lon="1.98042">
        <ele>466.4</ele>
        <time>2014-02-15T12:29:08.000Z</time>
      </trkpt>
      <trkpt lat="42.98422" lon="1.98012">
        <ele>469.3</ele>
        <time>2014-02-15T12:29:20.000Z</time>
      </trkpt>
      <trkpt lat="42.98419" lon="1.97978">
        <ele>468.8</ele>
        <time>2014-02-15T12:29:32.000Z</time>
      </trkpt>
      <trkpt lat="42.98416" lon="1.9796">
        <ele>472.1</ele>
        <time>2014-02-15T12:29:41.000Z</time>
      </trkpt>
      <trkpt lat="42.9841" lon="1.9793">
        <ele>474.6</ele>
        <time>2014-02-15T12:29:51.000Z</time>
      </trkpt>
      <trkpt lat="42.98403" lon="1.97904">
        <ele>475.5</ele>
        <time>2014-02-15T12:29:58.000Z</time>
      </trkpt>
      <trkpt lat="42.98399" lon="1.97883">
        <ele>477.4</ele>
        <time>2014-02-15T12:30:07.000Z</time>
      </trkpt>
      <trkpt lat="42.98393" lon="1.97865">
        <ele>479.4</ele>
        <time>2014-02-15T12:30:19.000Z</time>
      </trkpt>
      <trkpt lat="42.9839" lon="1.9786">
        <ele>479.8</ele>
        <time>2014-02-15T12:30:27.000Z</time>
      </trkpt>
      <trkpt lat="42.98388" lon="1.97858">
        <ele>479.4</ele>
        <time>2014-02-15T12:30:38.000Z</time>
      </trkpt>
      <trkpt lat="42.98387" lon="1.97843">
        <ele>480.8</ele>
        <time>2014-02-15T12:30:46.000Z</time>
      </trkpt>
      <trkpt lat="42.98383" lon="1.97823">
        <ele>482.2</ele>
        <time>2014-02-15T12:30:53.000Z</time>
      </trkpt>
      <trkpt lat="42.98378" lon="1.978">
        <ele>483.7</ele>
        <time>2014-02-15T12:31:01.000Z</time>
      </trkpt>
      <trkpt lat="42.98366" lon="1.97777">
        <ele>486.1</ele>
        <time>2014-02-15T12:31:11.000Z</time>
      </trkpt>
      <trkpt lat="42.98363" lon="1.97773">
        <ele>484.6</ele>
        <time>2014-02-15T12:31:13.000Z</time>
      </trkpt>
      <trkpt lat="42.98359" lon="1.97764">
        <ele>486.6</ele>
        <time>2014-02-15T12:31:18.000Z</time>
      </trkpt>
      <trkpt lat="42.98357" lon="1.97755">
        <ele>486.1</ele>
        <time>2014-02-15T12:31:21.000Z</time>
      </trkpt>
      <trkpt lat="42.98342" lon="1.97739">
        <ele>488.5</ele>
        <time>2014-02-15T12:31:32.000Z</time>
      </trkpt>
      <trkpt lat="42.98329" lon="1.97743">
        <ele>489.9</ele>
        <time>2014-02-15T12:31:37.000Z</time>
      </trkpt>
      <trkpt lat="42.98312" lon="1.97748">
        <ele>490.4</ele>
        <time>2014-02-15T12:31:45.000Z</time>
      </trkpt>
      <trkpt lat="42.98299" lon="1.97753">
        <ele>490.9</ele>
        <time>2014-02-15T12:31:52.000Z</time>
      </trkpt>
      <trkpt lat="42.98288" lon="1.97758">
        <ele>491.4</ele>
        <time>2014-02-15T12:32:00.000Z</time>
      </trkpt>
      <trkpt lat="42.98281" lon="1.97758">
        <ele>491.9</ele>
        <time>2014-02-15T12:32:04.000Z</time>
      </trkpt>
      <trkpt lat="42.98262" lon="1.97768">
        <ele>491.9</ele>
        <time>2014-02-15T12:32:16.000Z</time>
      </trkpt>
      <trkpt lat="42.98255" lon="1.97772">
        <ele>490.9</ele>
        <time>2014-02-15T12:32:21.000Z</time>
      </trkpt>
      <trkpt lat="42.98247" lon="1.97771">
        <ele>491.4</ele>
        <time>2014-02-15T12:32:26.000Z</time>
      </trkpt>
      <trkpt lat="42.98244" lon="1.97769">
        <ele>491.9</ele>
        <time>2014-02-15T12:32:28.000Z</time>
      </trkpt>
      <trkpt lat="42.98231" lon="1.97757">
        <ele>492.8</ele>
        <time>2014-02-15T12:32:40.000Z</time>
      </trkpt>
      <trkpt lat="42.9823" lon="1.97758">
        <ele>492.8</ele>
        <time>2014-02-15T12:32:41.000Z</time>
      </trkpt>
      <trkpt lat="42.9823" lon="1.97758">
        <ele>486.1</ele>
        <time>2014-02-15T12:32:48.000Z</time>
      </trkpt>
      <trkpt lat="42.9823" lon="1.97758">
        <ele>490.4</ele>
        <time>2014-02-15T12:32:49.000Z</time>
      </trkpt>
      <trkpt lat="42.9823" lon="1.97758">
        <ele>488.5</ele>
        <time>2014-02-15T12:33:08.000Z</time>
      </trkpt>
      <trkpt lat="42.98227" lon="1.97758">
        <ele>492.3</ele>
        <time>2014-02-15T12:34:30.000Z</time>
      </trkpt>
      <trkpt lat="42.98227" lon="1.97758">
        <ele>491.9</ele>
        <time>2014-02-15T12:34:31.000Z</time>
      </trkpt>
      <trkpt lat="42.98227" lon="1.97758">
        <ele>491.9</ele>
        <time>2014-02-15T12:35:46.000Z</time>
      </trkpt>
      <trkpt lat="42.98215" lon="1.9779">
        <ele>491.4</ele>
        <time>2014-02-15T12:35:57.000Z</time>
      </trkpt>
      <trkpt lat="42.98199" lon="1.97812">
        <ele>488.5</ele>
        <time>2014-02-15T12:36:03.000Z</time>
      </trkpt>
      <trkpt lat="42.98178" lon="1.9783">
        <ele>486.1</ele>
        <time>2014-02-15T12:36:11.000Z</time>
      </trkpt>
      <trkpt lat="42.98173" lon="1.97833">
        <ele>485.6</ele>
        <time>2014-02-15T12:36:12.000Z</time>
      </trkpt>
      <trkpt lat="42.98163" lon="1.97837">
        <ele>486.1</ele>
        <time>2014-02-15T12:36:14.000Z</time>
      </trkpt>
      <trkpt lat="42.98157" lon="1.97838">
        <ele>484.6</ele>
        <time>2014-02-15T12:36:15.000Z</time>
      </trkpt>
      <trkpt lat="42.9815" lon="1.97838">
        <ele>484.6</ele>
        <time>2014-02-15T12:36:16.000Z</time>
      </trkpt>
      <trkpt lat="42.98143" lon="1.97836">
        <ele>485.1</ele>
        <time>2014-02-15T12:36:17.000Z</time>
      </trkpt>
      <trkpt lat="42.98137" lon="1.97834">
        <ele>484.6</ele>
        <time>2014-02-15T12:36:18.000Z</time>
      </trkpt>
      <trkpt lat="42.98131" lon="1.97831">
        <ele>483.2</ele>
        <time>2014-02-15T12:36:19.000Z</time>
      </trkpt>
      <trkpt lat="42.98125" lon="1.97828">
        <ele>483.7</ele>
        <time>2014-02-15T12:36:20.000Z</time>
      </trkpt>
      <trkpt lat="42.9811" lon="1.97821">
        <ele>481.3</ele>
        <time>2014-02-15T12:36:23.000Z</time>
      </trkpt>
      <trkpt lat="42.981" lon="1.97816">
        <ele>480.3</ele>
        <time>2014-02-15T12:36:25.000Z</time>
      </trkpt>
      <trkpt lat="42.98095" lon="1.97814">
        <ele>480.3</ele>
        <time>2014-02-15T12:36:26.000Z</time>
      </trkpt>
      <trkpt lat="42.98066" lon="1.97808">
        <ele>476.5</ele>
        <time>2014-02-15T12:36:32.000Z</time>
      </trkpt>
      <trkpt lat="42.98062" lon="1.97809">
        <ele>477</ele>
        <time>2014-02-15T12:36:33.000Z</time>
      </trkpt>
      <trkpt lat="42.9804" lon="1.97811">
        <ele>473.1</ele>
        <time>2014-02-15T12:36:38.000Z</time>
      </trkpt>
      <trkpt lat="42.98036" lon="1.97812">
        <ele>473.6</ele>
        <time>2014-02-15T12:36:39.000Z</time>
      </trkpt>
      <trkpt lat="42.98002" lon="1.97821">
        <ele>468.8</ele>
        <time>2014-02-15T12:36:48.000Z</time>
      </trkpt>
      <trkpt lat="42.97989" lon="1.97825">
        <ele>468.8</ele>
        <time>2014-02-15T12:36:51.000Z</time>
      </trkpt>
      <trkpt lat="42.97948" lon="1.97849">
        <ele>464.9</ele>
        <time>2014-02-15T12:37:00.000Z</time>
      </trkpt>
      <trkpt lat="42.97938" lon="1.97855">
        <ele>463.5</ele>
        <time>2014-02-15T12:37:02.000Z</time>
      </trkpt>
      <trkpt lat="42.97934" lon="1.97858">
        <ele>464.9</ele>
        <time>2014-02-15T12:37:03.000Z</time>
      </trkpt>
      <trkpt lat="42.97929" lon="1.97862">
        <ele>463</ele>
        <time>2014-02-15T12:37:04.000Z</time>
      </trkpt>
      <trkpt lat="42.97921" lon="1.97868">
        <ele>463</ele>
        <time>2014-02-15T12:37:06.000Z</time>
      </trkpt>
      <trkpt lat="42.97917" lon="1.97872">
        <ele>462.5</ele>
        <time>2014-02-15T12:37:07.000Z</time>
      </trkpt>
      <trkpt lat="42.97912" lon="1.97875">
        <ele>462.1</ele>
        <time>2014-02-15T12:37:08.000Z</time>
      </trkpt>
      <trkpt lat="42.97908" lon="1.97877">
        <ele>462.1</ele>
        <time>2014-02-15T12:37:09.000Z</time>
      </trkpt>
      <trkpt lat="42.97903" lon="1.97875">
        <ele>461.1</ele>
        <time>2014-02-15T12:37:10.000Z</time>
      </trkpt>
      <trkpt lat="42.979" lon="1.9787">
        <ele>460.1</ele>
        <time>2014-02-15T12:37:11.000Z</time>
      </trkpt>
      <trkpt lat="42.979" lon="1.97862">
        <ele>460.6</ele>
        <time>2014-02-15T12:37:12.000Z</time>
      </trkpt>
      <trkpt lat="42.97902" lon="1.97854">
        <ele>458.7</ele>
        <time>2014-02-15T12:37:13.000Z</time>
      </trkpt>
      <trkpt lat="42.97904" lon="1.97845">
        <ele>458.7</ele>
        <time>2014-02-15T12:37:14.000Z</time>
      </trkpt>
      <trkpt lat="42.97911" lon="1.97827">
        <ele>456.8</ele>
        <time>2014-02-15T12:37:16.000Z</time>
      </trkpt>
      <trkpt lat="42.97918" lon="1.9781">
        <ele>457.2</ele>
        <time>2014-02-15T12:37:18.000Z</time>
      </trkpt>
      <trkpt lat="42.97921" lon="1.97801">
        <ele>456.3</ele>
        <time>2014-02-15T12:37:19.000Z</time>
      </trkpt>
      <trkpt lat="42.97917" lon="1.97783">
        <ele>450.5</ele>
        <time>2014-02-15T12:37:41.000Z</time>
      </trkpt>
      <trkpt lat="42.97916" lon="1.97782">
        <ele>450</ele>
        <time>2014-02-15T12:37:42.000Z</time>
      </trkpt>
      <trkpt lat="42.97911" lon="1.97779">
        <ele>448.6</ele>
        <time>2014-02-15T12:37:45.000Z</time>
      </trkpt>
      <trkpt lat="42.9791" lon="1.97777">
        <ele>449.1</ele>
        <time>2014-02-15T12:37:46.000Z</time>
      </trkpt>
      <trkpt lat="42.97908" lon="1.97775">
        <ele>447.2</ele>
        <time>2014-02-15T12:37:47.000Z</time>
      </trkpt>
      <trkpt lat="42.97903" lon="1.97771">
        <ele>446.2</ele>
        <time>2014-02-15T12:37:49.000Z</time>
      </trkpt>
      <trkpt lat="42.97899" lon="1.97764">
        <ele>443.8</ele>
        <time>2014-02-15T12:37:53.000Z</time>
      </trkpt>
      <trkpt lat="42.97899" lon="1.97763">
        <ele>443.8</ele>
        <time>2014-02-15T12:37:54.000Z</time>
      </trkpt>
      <trkpt lat="42.97898" lon="1.97758">
        <ele>443.8</ele>
        <time>2014-02-15T12:37:58.000Z</time>
      </trkpt>
      <trkpt lat="42.97895" lon="1.97755">
        <ele>443.3</ele>
        <time>2014-02-15T12:38:00.000Z</time>
      </trkpt>
      <trkpt lat="42.97893" lon="1.97753">
        <ele>442.3</ele>
        <time>2014-02-15T12:38:01.000Z</time>
      </trkpt>
      <trkpt lat="42.97891" lon="1.97752">
        <ele>442.8</ele>
        <time>2014-02-15T12:38:02.000Z</time>
      </trkpt>
      <trkpt lat="42.97888" lon="1.97752">
        <ele>441.9</ele>
        <time>2014-02-15T12:38:03.000Z</time>
      </trkpt>
      <trkpt lat="42.97886" lon="1.97752">
        <ele>441.9</ele>
        <time>2014-02-15T12:38:04.000Z</time>
      </trkpt>
      <trkpt lat="42.97885" lon="1.97752">
        <ele>441.4</ele>
        <time>2014-02-15T12:38:05.000Z</time>
      </trkpt>
      <trkpt lat="42.97883" lon="1.9775">
        <ele>440.9</ele>
        <time>2014-02-15T12:38:06.000Z</time>
      </trkpt>
      <trkpt lat="42.97881" lon="1.97748">
        <ele>438.5</ele>
        <time>2014-02-15T12:38:07.000Z</time>
      </trkpt>
      <trkpt lat="42.97879" lon="1.97746">
        <ele>439</ele>
        <time>2014-02-15T12:38:08.000Z</time>
      </trkpt>
      <trkpt lat="42.97876" lon="1.97744">
        <ele>439.5</ele>
        <time>2014-02-15T12:38:09.000Z</time>
      </trkpt>
      <trkpt lat="42.97874" lon="1.97743">
        <ele>438.5</ele>
        <time>2014-02-15T12:38:10.000Z</time>
      </trkpt>
      <trkpt lat="42.97871" lon="1.97741">
        <ele>438</ele>
        <time>2014-02-15T12:38:11.000Z</time>
      </trkpt>
      <trkpt lat="42.9787" lon="1.9774">
        <ele>438</ele>
        <time>2014-02-15T12:38:12.000Z</time>
      </trkpt>
      <trkpt lat="42.97868" lon="1.97738">
        <ele>437.1</ele>
        <time>2014-02-15T12:38:13.000Z</time>
      </trkpt>
      <trkpt lat="42.97867" lon="1.97736">
        <ele>436.1</ele>
        <time>2014-02-15T12:38:14.000Z</time>
      </trkpt>
      <trkpt lat="42.97865" lon="1.97733">
        <ele>436.1</ele>
        <time>2014-02-15T12:38:15.000Z</time>
      </trkpt>
      <trkpt lat="42.97863" lon="1.9773">
        <ele>437.1</ele>
        <time>2014-02-15T12:38:16.000Z</time>
      </trkpt>
      <trkpt lat="42.97861" lon="1.97728">
        <ele>435.1</ele>
        <time>2014-02-15T12:38:17.000Z</time>
      </trkpt>
      <trkpt lat="42.97857" lon="1.97722">
        <ele>434.2</ele>
        <time>2014-02-15T12:38:19.000Z</time>
      </trkpt>
      <trkpt lat="42.97846" lon="1.97712">
        <ele>431.8</ele>
        <time>2014-02-15T12:38:25.000Z</time>
      </trkpt>
      <trkpt lat="42.97842" lon="1.97712">
        <ele>430.8</ele>
        <time>2014-02-15T12:38:26.000Z</time>
      </trkpt>
      <trkpt lat="42.97838" lon="1.97712">
        <ele>431.3</ele>
        <time>2014-02-15T12:38:27.000Z</time>
      </trkpt>
      <trkpt lat="42.97833" lon="1.97711">
        <ele>430.3</ele>
        <time>2014-02-15T12:38:28.000Z</time>
      </trkpt>
      <trkpt lat="42.97828" lon="1.97708">
        <ele>430.3</ele>
        <time>2014-02-15T12:38:29.000Z</time>
      </trkpt>
      <trkpt lat="42.97824" lon="1.97704">
        <ele>430.3</ele>
        <time>2014-02-15T12:38:30.000Z</time>
      </trkpt>
      <trkpt lat="42.9782" lon="1.97697">
        <ele>430.8</ele>
        <time>2014-02-15T12:38:31.000Z</time>
      </trkpt>
      <trkpt lat="42.97815" lon="1.97691">
        <ele>429.4</ele>
        <time>2014-02-15T12:38:32.000Z</time>
      </trkpt>
      <trkpt lat="42.97809" lon="1.97687">
        <ele>429.4</ele>
        <time>2014-02-15T12:38:33.000Z</time>
      </trkpt>
      <trkpt lat="42.97802" lon="1.97685">
        <ele>429.4</ele>
        <time>2014-02-15T12:38:34.000Z</time>
      </trkpt>
      <trkpt lat="42.97794" lon="1.97686">
        <ele>428.4</ele>
        <time>2014-02-15T12:38:35.000Z</time>
      </trkpt>
      <trkpt lat="42.97787" lon="1.9769">
        <ele>427</ele>
        <time>2014-02-15T12:38:36.000Z</time>
      </trkpt>
      <trkpt lat="42.97779" lon="1.97694">
        <ele>427</ele>
        <time>2014-02-15T12:38:37.000Z</time>
      </trkpt>
      <trkpt lat="42.97762" lon="1.97698">
        <ele>425.5</ele>
        <time>2014-02-15T12:38:39.000Z</time>
      </trkpt>
      <trkpt lat="42.97752" lon="1.97698">
        <ele>424.6</ele>
        <time>2014-02-15T12:38:40.000Z</time>
      </trkpt>
      <trkpt lat="42.97743" lon="1.97696">
        <ele>424.1</ele>
        <time>2014-02-15T12:38:41.000Z</time>
      </trkpt>
      <trkpt lat="42.97734" lon="1.97694">
        <ele>423.1</ele>
        <time>2014-02-15T12:38:42.000Z</time>
      </trkpt>
      <trkpt lat="42.97725" lon="1.97691">
        <ele>424.1</ele>
        <time>2014-02-15T12:38:43.000Z</time>
      </trkpt>
      <trkpt lat="42.97669" lon="1.97679">
        <ele>422.6</ele>
        <time>2014-02-15T12:38:50.000Z</time>
      </trkpt>
      <trkpt lat="42.97614" lon="1.97665">
        <ele>423.1</ele>
        <time>2014-02-15T12:39:01.000Z</time>
      </trkpt>
      <trkpt lat="42.97605" lon="1.97664">
        <ele>423.1</ele>
        <time>2014-02-15T12:39:07.000Z</time>
      </trkpt>
      <trkpt lat="42.976" lon="1.97667">
        <ele>424.6</ele>
        <time>2014-02-15T12:39:13.000Z</time>
      </trkpt>
      <trkpt lat="42.97601" lon="1.97668">
        <ele>423.6</ele>
        <time>2014-02-15T12:39:14.000Z</time>
      </trkpt>
      <trkpt lat="42.97602" lon="1.97669">
        <ele>423.1</ele>
        <time>2014-02-15T12:39:15.000Z</time>
      </trkpt>
      <trkpt lat="42.97603" lon="1.97669">
        <ele>424.1</ele>
        <time>2014-02-15T12:39:16.000Z</time>
      </trkpt>
      <trkpt lat="42.97604" lon="1.97667">
        <ele>424.1</ele>
        <time>2014-02-15T12:39:17.000Z</time>
      </trkpt>
      <trkpt lat="42.97604" lon="1.97665">
        <ele>424.1</ele>
        <time>2014-02-15T12:39:18.000Z</time>
      </trkpt>
      <trkpt lat="42.97604" lon="1.97664">
        <ele>424.6</ele>
        <time>2014-02-15T12:39:19.000Z</time>
      </trkpt>
      <trkpt lat="42.97603" lon="1.97663">
        <ele>422.6</ele>
        <time>2014-02-15T12:39:20.000Z</time>
      </trkpt>
      <trkpt lat="42.97601" lon="1.97665">
        <ele>423.6</ele>
        <time>2014-02-15T12:39:21.000Z</time>
      </trkpt>
      <trkpt lat="42.976" lon="1.97667">
        <ele>424.1</ele>
        <time>2014-02-15T12:39:22.000Z</time>
      </trkpt>
      <trkpt lat="42.97599" lon="1.9767">
        <ele>423.6</ele>
        <time>2014-02-15T12:39:23.000Z</time>
      </trkpt>
      <trkpt lat="42.97661" lon="1.97129">
        <ele>402.5</ele>
        <time>2026-12-05T11:46:40.884Z</time>
      </trkpt>
      <trkpt lat="42.97859" lon="1.97111">
        <ele>402.8</ele>
        <time>2019-11-24T06:20:12.867Z</time>
      </trkpt>
      <trkpt lat="42.9789" lon="1.96965">
        <ele>399.9</ele>
        <time>2016-12-17T15:15:35.262Z</time>
      </trkpt>
      <trkpt lat="42.98022" lon="1.96944">
        <ele>408.9</ele>
        <time>2015-04-03T03:11:00.991Z</time>
      </trkpt>
      <trkpt lat="42.98097" lon="1.96828">
        <ele>413.5</ele>
        <time>2014-09-11T05:03:48.267Z</time>
      </trkpt>
      <trkpt lat="42.98191" lon="1.96789">
        <ele>422.2</ele>
        <time>2014-06-05T06:03:16.390Z</time>
      </trkpt>
      <trkpt lat="42.98285" lon="1.96661">
        <ele>415.2</ele>
        <time>2014-03-22T20:52:04.752Z</time>
      </trkpt>
      <trkpt lat="42.98408" lon="1.96562">
        <ele>414.5</ele>
        <time>2014-01-14T16:02:44.990Z</time>
      </trkpt>
      <trkpt lat="42.9853" lon="1.96571">
        <ele>414.9</ele>
        <time>2013-12-14T01:17:22.694Z</time>
      </trkpt>
      <trkpt lat="42.98785" lon="1.96506">
        <ele>404.4</ele>
        <time>2013-11-22T17:03:11.948Z</time>
      </trkpt>
      <trkpt lat="42.98819" lon="1.96622">
        <ele>418.4</ele>
        <time>2013-11-19T15:23:39.496Z</time>
      </trkpt>
      <trkpt lat="42.98926" lon="1.96648">
        <ele>420.9</ele>
        <time>2013-11-18T04:31:47.505Z</time>
      </trkpt>
      <trkpt lat="42.9897" lon="1.96622">
        <ele>416.6</ele>
        <time>2013-11-17T17:53:17.347Z</time>
      </trkpt>
      <trkpt lat="42.98995" lon="1.96575">
        <ele>410.8</ele>
        <time>2013-11-17T13:59:27.173Z</time>
      </trkpt>
      <trkpt lat="42.99136" lon="1.96408">
        <ele>414.7</ele>
        <time>2013-11-17T04:14:32.865Z</time>
      </trkpt>
      <trkpt lat="42.99171" lon="1.96214">
        <ele>406.3</ele>
        <time>2013-11-16T16:52:05.943Z</time>
      </trkpt>
      <trkpt lat="42.99259" lon="1.9606">
        <ele>404.9</ele>
        <time>2013-11-16T10:12:04.319Z</time>
      </trkpt>
      <trkpt lat="42.99303" lon="1.96013">
        <ele>400.8</ele>
        <time>2013-11-16T09:14:24.644Z</time>
      </trkpt>
      <trkpt lat="42.99368" lon="1.96013">
        <ele>401.2</ele>
        <time>2013-11-16T09:05:49.476Z</time>
      </trkpt>
      <trkpt lat="42.99422" lon="1.95697">
        <ele>409.2</ele>
        <time>2013-11-16T09:01:38.000Z</time>
      </trkpt>
      <trkpt lat="42.9939" lon="1.95683">
        <ele>407.7</ele>
        <time>2013-11-16T09:01:26.000Z</time>
      </trkpt>
      <trkpt lat="42.99361" lon="1.95656">
        <ele>410.6</ele>
        <time>2013-11-16T09:01:15.000Z</time>
      </trkpt>
      <trkpt lat="42.99336" lon="1.95636">
        <ele>409.2</ele>
        <time>2013-11-16T09:01:05.000Z</time>
      </trkpt>
      <trkpt lat="42.99298" lon="1.95617">
        <ele>407.7</ele>
        <time>2013-11-16T09:00:52.000Z</time>
      </trkpt>
      <trkpt lat="42.99296" lon="1.95615">
        <ele>407.7</ele>
        <time>2013-11-16T09:00:51.000Z</time>
      </trkpt>
      <trkpt lat="42.99295" lon="1.95613">
        <ele>408.2</ele>
        <time>2013-11-16T09:00:50.000Z</time>
      </trkpt>
      <trkpt lat="42.99289" lon="1.95608">
        <ele>407.3</ele>
        <time>2013-11-16T09:00:43.000Z</time>
      </trkpt>
      <trkpt lat="42.99279" lon="1.95603">
        <ele>407.7</ele>
        <time>2013-11-16T09:00:40.000Z</time>
      </trkpt>
      <trkpt lat="42.99275" lon="1.95602">
        <ele>406.8</ele>
        <time>2013-11-16T09:00:39.000Z</time>
      </trkpt>
      <trkpt lat="42.99258" lon="1.95593">
        <ele>407.3</ele>
        <time>2013-11-16T09:00:34.000Z</time>
      </trkpt>
      <trkpt lat="42.99255" lon="1.95592">
        <ele>408.2</ele>
        <time>2013-11-16T09:00:33.000Z</time>
      </trkpt>
      <trkpt lat="42.99251" lon="1.95593">
        <ele>407.3</ele>
        <time>2013-11-16T09:00:31.000Z</time>
      </trkpt>
      <trkpt lat="42.99249" lon="1.95595">
        <ele>406.8</ele>
        <time>2013-11-16T09:00:30.000Z</time>
      </trkpt>
      <trkpt lat="42.99247" lon="1.95596">
        <ele>407.7</ele>
        <time>2013-11-16T09:00:29.000Z</time>
      </trkpt>
      <trkpt lat="42.99245" lon="1.95596">
        <ele>407.7</ele>
        <time>2013-11-16T09:00:28.000Z</time>
      </trkpt>
      <trkpt lat="42.99242" lon="1.95597">
        <ele>408.7</ele>
        <time>2013-11-16T09:00:27.000Z</time>
      </trkpt>
      <trkpt lat="42.99238" lon="1.95598">
        <ele>408.2</ele>
        <time>2013-11-16T09:00:25.000Z</time>
      </trkpt>
      <trkpt lat="42.99235" lon="1.95598">
        <ele>408.2</ele>
        <time>2013-11-16T09:00:24.000Z</time>
      </trkpt>
      <trkpt lat="42.99233" lon="1.95599">
        <ele>407.7</ele>
        <time>2013-11-16T09:00:23.000Z</time>
      </trkpt>
      <trkpt lat="42.9923" lon="1.95599">
        <ele>409.2</ele>
        <time>2013-11-16T09:00:22.000Z</time>
      </trkpt>
      <trkpt lat="42.99228" lon="1.95599">
        <ele>409.2</ele>
        <time>2013-11-16T09:00:21.000Z</time>
      </trkpt>
      <trkpt lat="42.99215" lon="1.95587">
        <ele>409.2</ele>
        <time>2013-11-16T09:00:11.000Z</time>
      </trkpt>
      <trkpt lat="42.99206" lon="1.95574">
        <ele>405.8</ele>
        <time>2013-11-16T09:00:04.000Z</time>
      </trkpt>
      <trkpt lat="42.99204" lon="1.95572">
        <ele>405.3</ele>
        <time>2013-11-16T09:00:03.000Z</time>
      </trkpt>
      <trkpt lat="42.99202" lon="1.95569">
        <ele>406.3</ele>
        <time>2013-11-16T09:00:02.000Z</time>
      </trkpt>
      <trkpt lat="42.99201" lon="1.95567">
        <ele>406.3</ele>
        <time>2013-11-16T09:00:01.000Z</time>
      </trkpt>
      <trkpt lat="42.992" lon="1.95565">
        <ele>407.3</ele>
        <time>2013-11-16T09:00:00.000Z</time>
      </trkpt>
      <trkpt lat="42.99198" lon="1.95563">
        <ele>406.3</ele>
        <time>2013-11-16T08:59:59.000Z</time>
      </trkpt>
      <trkpt lat="42.99196" lon="1.95561">
        <ele>406.8</ele>
        <time>2013-11-16T08:59:58.000Z</time>
      </trkpt>
      <trkpt lat="42.99193" lon="1.95558">
        <ele>407.7</ele>
        <time>2013-11-16T08:59:57.000Z</time>
      </trkpt>
      <trkpt lat="42.99192" lon="1.95554">
        <ele>406.8</ele>
        <time>2013-11-16T08:59:56.000Z</time>
      </trkpt>
      <trkpt lat="42.99191" lon="1.95552">
        <ele>407.3</ele>
        <time>2013-11-16T08:59:55.000Z</time>
      </trkpt>
      <trkpt lat="42.9919" lon="1.95549">
        <ele>407.3</ele>
        <time>2013-11-16T08:59:54.000Z</time>
      </trkpt>
      <trkpt lat="42.99188" lon="1.95548">
        <ele>408.7</ele>
        <time>2013-11-16T08:59:53.000Z</time>
      </trkpt>
      <trkpt lat="42.99185" lon="1.95546">
        <ele>406.8</ele>
        <time>2013-11-16T08:59:51.000Z</time>
      </trkpt>
      <trkpt lat="42.99183" lon="1.95544">
        <ele>407.7</ele>
        <time>2013-11-16T08:59:50.000Z</time>
      </trkpt>
      <trkpt lat="42.99181" lon="1.95544">
        <ele>408.7</ele>
        <time>2013-11-16T08:59:49.000Z</time>
      </trkpt>
      <trkpt lat="42.99179" lon="1.95543">
        <ele>408.7</ele>
        <time>2013-11-16T08:59:48.000Z</time>
      </trkpt>
      <trkpt lat="42.99178" lon="1.95542">
        <ele>409.2</ele>
        <time>2013-11-16T08:59:47.000Z</time>
      </trkpt>
      <trkpt lat="42.99175" lon="1.95541">
        <ele>408.7</ele>
        <time>2013-11-16T08:59:46.000Z</time>
      </trkpt>
      <trkpt lat="42.99173" lon="1.9554">
        <ele>410.1</ele>
        <time>2013-11-16T08:59:38.000Z</time>
      </trkpt>
      <trkpt lat="42.9917" lon="1.9554">
        <ele>409.2</ele>
        <time>2013-11-16T08:59:31.000Z</time>
      </trkpt>
      <trkpt lat="42.99164" lon="1.95541">
        <ele>407.3</ele>
        <time>2013-11-16T08:59:22.000Z</time>
      </trkpt>
      <trkpt lat="42.99128" lon="1.95529">
        <ele>408.7</ele>
        <time>2013-11-16T08:59:12.000Z</time>
      </trkpt>
      <trkpt lat="42.99106" lon="1.95525">
        <ele>409.2</ele>
        <time>2013-11-16T08:59:06.000Z</time>
      </trkpt>
      <trkpt lat="42.99095" lon="1.95516">
        <ele>410.6</ele>
        <time>2013-11-16T08:59:03.000Z</time>
      </trkpt>
      <trkpt lat="42.99082" lon="1.95513">
        <ele>411.6</ele>
        <time>2013-11-16T08:58:59.000Z</time>
      </trkpt>
      <trkpt lat="42.99069" lon="1.95519">
        <ele>410.6</ele>
        <time>2013-11-16T08:58:54.000Z</time>
      </trkpt>
      <trkpt lat="42.99067" lon="1.95519">
        <ele>409.7</ele>
        <time>2013-11-16T08:58:53.000Z</time>
      </trkpt>
      <trkpt lat="42.99046" lon="1.95496">
        <ele>409.2</ele>
        <time>2013-11-16T08:58:44.000Z</time>
      </trkpt>
      <trkpt lat="42.99046" lon="1.95486">
        <ele>411.1</ele>
        <time>2013-11-16T08:58:42.000Z</time>
      </trkpt>
      <trkpt lat="42.99048" lon="1.95483">
        <ele>409.7</ele>
        <time>2013-11-16T08:58:41.000Z</time>
      </trkpt>
      <trkpt lat="42.99059" lon="1.95471">
        <ele>410.6</ele>
        <time>2013-11-16T08:58:37.000Z</time>
      </trkpt>
      <trkpt lat="42.99078" lon="1.9544">
        <ele>412.5</ele>
        <time>2013-11-16T08:58:28.000Z</time>
      </trkpt>
      <trkpt lat="42.99084" lon="1.95402">
        <ele>409.2</ele>
        <time>2013-11-16T08:58:17.000Z</time>
      </trkpt>
      <trkpt lat="42.99083" lon="1.95392">
        <ele>411.1</ele>
        <time>2013-11-16T08:58:14.000Z</time>
      </trkpt>
      <trkpt lat="42.99086" lon="1.95378">
        <ele>410.1</ele>
        <time>2013-11-16T08:58:09.000Z</time>
      </trkpt>
      <trkpt lat="42.99086" lon="1.95372">
        <ele>410.6</ele>
        <time>2013-11-16T08:58:05.000Z</time>
      </trkpt>
      <trkpt lat="42.99086" lon="1.9537">
        <ele>409.7</ele>
        <time>2013-11-16T08:56:42.000Z</time>
      </trkpt>
      <trkpt lat="42.99086" lon="1.9537">
        <ele>410.1</ele>
        <time>2013-11-16T08:56:15.000Z</time>
      </trkpt>
      <trkpt lat="42.99086" lon="1.95362">
        <ele>410.6</ele>
        <time>2013-11-16T08:56:03.000Z</time>
      </trkpt>
      <trkpt lat="42.9909" lon="1.95337">
        <ele>412.5</ele>
        <time>2013-11-16T08:55:55.000Z</time>
      </trkpt>
      <trkpt lat="42.9909" lon="1.95331">
        <ele>411.1</ele>
        <time>2013-11-16T08:55:53.000Z</time>
      </trkpt>
      <trkpt lat="42.99086" lon="1.95318">
        <ele>409.2</ele>
        <time>2013-11-16T08:55:50.000Z</time>
      </trkpt>
      <trkpt lat="42.99081" lon="1.95295">
        <ele>409.7</ele>
        <time>2013-11-16T08:55:45.000Z</time>
      </trkpt>
      <trkpt lat="42.99086" lon="1.95281">
        <ele>408.2</ele>
        <time>2013-11-16T08:55:39.000Z</time>
      </trkpt>
      <trkpt lat="42.99087" lon="1.95275">
        <ele>409.2</ele>
        <time>2013-11-16T08:55:37.000Z</time>
      </trkpt>
      <trkpt lat="42.99085" lon="1.95268">
        <ele>407.7</ele>
        <time>2013-11-16T08:55:35.000Z</time>
      </trkpt>
      <trkpt lat="42.99084" lon="1.95264">
        <ele>408.2</ele>
        <time>2013-11-16T08:55:34.000Z</time>
      </trkpt>
      <trkpt lat="42.99069" lon="1.95227">
        <ele>408.7</ele>
        <time>2013-11-16T08:55:25.000Z</time>
      </trkpt>
      <trkpt lat="42.99068" lon="1.95219">
        <ele>409.2</ele>
        <time>2013-11-16T08:55:23.000Z</time>
      </trkpt>
      <trkpt lat="42.99056" lon="1.95194">
        <ele>407.7</ele>
        <time>2013-11-16T08:55:15.000Z</time>
      </trkpt>
      <trkpt lat="42.99053" lon="1.95187">
        <ele>408.7</ele>
        <time>2013-11-16T08:55:13.000Z</time>
      </trkpt>
      <trkpt lat="42.99046" lon="1.95179">
        <ele>407.3</ele>
        <time>2013-11-16T08:55:09.000Z</time>
      </trkpt>
      <trkpt lat="42.9904" lon="1.95163">
        <ele>408.7</ele>
        <time>2013-11-16T08:55:04.000Z</time>
      </trkpt>
      <trkpt lat="42.99038" lon="1.95137">
        <ele>408.7</ele>
        <time>2013-11-16T08:54:56.000Z</time>
      </trkpt>
      <trkpt lat="42.99045" lon="1.95095">
        <ele>409.7</ele>
        <time>2013-11-16T08:54:46.000Z</time>
      </trkpt>
      <trkpt lat="42.99046" lon="1.95076">
        <ele>409.2</ele>
        <time>2013-11-16T08:54:40.000Z</time>
      </trkpt>
      <trkpt lat="42.99056" lon="1.95049">
        <ele>410.1</ele>
        <time>2013-11-16T08:54:32.000Z</time>
      </trkpt>
      <trkpt lat="42.99064" lon="1.95026">
        <ele>409.2</ele>
        <time>2013-11-16T08:54:24.000Z</time>
      </trkpt>
      <trkpt lat="42.99073" lon="1.95017">
        <ele>412.1</ele>
        <time>2013-11-16T08:54:17.000Z</time>
      </trkpt>
      <trkpt lat="42.99088" lon="1.94988">
        <ele>408.2</ele>
        <time>2013-11-16T08:54:06.000Z</time>
      </trkpt>
      <trkpt lat="42.99102" lon="1.9499">
        <ele>408.7</ele>
        <time>2013-11-16T08:53:59.000Z</time>
      </trkpt>
      <trkpt lat="42.99112" lon="1.94987">
        <ele>408.7</ele>
        <time>2013-11-16T08:53:54.000Z</time>
      </trkpt>
      <trkpt lat="42.99111" lon="1.94959">
        <ele>408.2</ele>
        <time>2013-11-16T08:53:46.000Z</time>
      </trkpt>
      <trkpt lat="42.99105" lon="1.94943">
        <ele>407.3</ele>
        <time>2013-11-16T08:53:42.000Z</time>
      </trkpt>
      <trkpt lat="42.99106" lon="1.94923">
        <ele>408.2</ele>
        <time>2013-11-16T08:53:36.000Z</time>
      </trkpt>
      <trkpt lat="42.99106" lon="1.94918">
        <ele>408.2</ele>
        <time>2013-11-16T08:53:33.000Z</time>
      </trkpt>
      <trkpt lat="42.99108" lon="1.94915">
        <ele>407.3</ele>
        <time>2013-11-16T08:53:31.000Z</time>
      </trkpt>
      <trkpt lat="42.99114" lon="1.94897">
        <ele>408.7</ele>
        <time>2013-11-16T08:53:22.000Z</time>
      </trkpt>
      <trkpt lat="42.99118" lon="1.94894">
        <ele>410.6</ele>
        <time>2013-11-16T08:53:19.000Z</time>
      </trkpt>
      <trkpt lat="42.99124" lon="1.94889">
        <ele>411.1</ele>
        <time>2013-11-16T08:53:15.000Z</time>
      </trkpt>
      <trkpt lat="42.99126" lon="1.94883">
        <ele>410.6</ele>
        <time>2013-11-16T08:53:12.000Z</time>
      </trkpt>
      <trkpt lat="42.99127" lon="1.94872">
        <ele>409.7</ele>
        <time>2013-11-16T08:53:07.000Z</time>
      </trkpt>
      <trkpt lat="42.99122" lon="1.94852">
        <ele>408.2</ele>
        <time>2013-11-16T08:52:59.000Z</time>
      </trkpt>
      <trkpt lat="42.9912" lon="1.94847">
        <ele>408.7</ele>
        <time>2013-11-16T08:52:57.000Z</time>
      </trkpt>
      <trkpt lat="42.99116" lon="1.94841">
        <ele>407.3</ele>
        <time>2013-11-16T08:52:55.000Z</time>
      </trkpt>
      <trkpt lat="42.99116" lon="1.94838">
        <ele>407.3</ele>
        <time>2013-11-16T08:52:54.000Z</time>
      </trkpt>
      <trkpt lat="42.99119" lon="1.94827">
        <ele>409.7</ele>
        <time>2013-11-16T08:52:51.000Z</time>
      </trkpt>
      <trkpt lat="42.99119" lon="1.94823">
        <ele>407.3</ele>
        <time>2013-11-16T08:52:50.000Z</time>
      </trkpt>
      <trkpt lat="42.9912" lon="1.94784">
        <ele>408.2</ele>
        <time>2013-11-16T08:52:41.000Z</time>
      </trkpt>
      <trkpt lat="42.99111" lon="1.94771">
        <ele>407.7</ele>
        <time>2013-11-16T08:52:37.000Z</time>
      </trkpt>
      <trkpt lat="42.99093" lon="1.94766">
        <ele>408.7</ele>
        <time>2013-11-16T08:52:30.000Z</time>
      </trkpt>
      <trkpt lat="42.99076" lon="1.94779">
        <ele>409.2</ele>
        <time>2013-11-16T08:52:24.000Z</time>
      </trkpt>
      <trkpt lat="42.99064" lon="1.94805">
        <ele>410.6</ele>
        <time>2013-11-16T08:52:18.000Z</time>
      </trkpt>
      <trkpt lat="42.99057" lon="1.94822">
        <ele>409.2</ele>
        <time>2013-11-16T08:52:13.000Z</time>
      </trkpt>
      <trkpt lat="42.99034" lon="1.94856">
        <ele>408.7</ele>
        <time>2013-11-16T08:52:03.000Z</time>
      </trkpt>
      <trkpt lat="42.99021" lon="1.94869">
        <ele>409.7</ele>
        <time>2013-11-16T08:51:59.000Z</time>
      </trkpt>
      <trkpt lat="42.98997" lon="1.94883">
        <ele>409.7</ele>
        <time>2013-11-16T08:51:51.000Z</time>
      </trkpt>
      <trkpt lat="42.9899" lon="1.94887">
        <ele>409.7</ele>
        <time>2013-11-16T08:51:49.000Z</time>
      </trkpt>
      <trkpt lat="42.98965" lon="1.94891">
        <ele>409.7</ele>
        <time>2013-11-16T08:51:42.000Z</time>
      </trkpt>
      <trkpt lat="42.98934" lon="1.94905">
        <ele>409.7</ele>
        <time>2013-11-16T08:51:32.000Z</time>
      </trkpt>
      <trkpt lat="42.98922" lon="1.949">
        <ele>410.1</ele>
        <time>2013-11-16T08:51:27.000Z</time>
      </trkpt>
      <trkpt lat="42.98901" lon="1.94911">
        <ele>409.2</ele>
        <time>2013-11-16T08:51:18.000Z</time>
      </trkpt>
      <trkpt lat="42.98895" lon="1.94919">
        <ele>409.2</ele>
        <time>2013-11-16T08:51:15.000Z</time>
      </trkpt>
      <trkpt lat="42.98889" lon="1.94923">
        <ele>409.7</ele>
        <time>2013-11-16T08:51:12.000Z</time>
      </trkpt>
      <trkpt lat="42.98867" lon="1.94916">
        <ele>411.1</ele>
        <time>2013-11-16T08:51:02.000Z</time>
      </trkpt>
      <trkpt lat="42.98862" lon="1.94918">
        <ele>409.7</ele>
        <time>2013-11-16T08:50:58.000Z</time>
      </trkpt>
      <trkpt lat="42.98835" lon="1.94891">
        <ele>408.2</ele>
        <time>2013-11-16T08:50:47.000Z</time>
      </trkpt>
      <trkpt lat="42.98811" lon="1.94885">
        <ele>409.2</ele>
        <time>2013-11-16T08:50:38.000Z</time>
      </trkpt>
      <trkpt lat="42.98802" lon="1.94886">
        <ele>409.2</ele>
        <time>2013-11-16T08:50:33.000Z</time>
      </trkpt>
      <trkpt lat="42.98784" lon="1.94914">
        <ele>410.6</ele>
        <time>2013-11-16T08:50:24.000Z</time>
      </trkpt>
      <trkpt lat="42.98782" lon="1.94918">
        <ele>410.1</ele>
        <time>2013-11-16T08:49:59.000Z</time>
      </trkpt>
      <trkpt lat="42.98782" lon="1.94918">
        <ele>409.7</ele>
        <time>2013-11-16T08:49:57.000Z</time>
      </trkpt>
      <trkpt lat="42.98782" lon="1.94918">
        <ele>404.9</ele>
        <time>2013-11-16T08:49:56.000Z</time>
      </trkpt>
      <trkpt lat="42.9878" lon="1.94935">
        <ele>409.7</ele>
        <time>2013-11-16T08:49:50.000Z</time>
      </trkpt>
      <trkpt lat="42.9878" lon="1.94957">
        <ele>410.1</ele>
        <time>2013-11-16T08:49:45.000Z</time>
      </trkpt>
      <trkpt lat="42.98774" lon="1.9499">
        <ele>410.1</ele>
        <time>2013-11-16T08:49:38.000Z</time>
      </trkpt>
      <trkpt lat="42.98764" lon="1.95013">
        <ele>410.1</ele>
        <time>2013-11-16T08:49:33.000Z</time>
      </trkpt>
      <trkpt lat="42.98733" lon="1.95075">
        <ele>410.6</ele>
        <time>2013-11-16T08:49:22.000Z</time>
      </trkpt>
      <trkpt lat="42.98727" lon="1.95092">
        <ele>410.6</ele>
        <time>2013-11-16T08:49:19.000Z</time>
      </trkpt>
      <trkpt lat="42.9872" lon="1.95106">
        <ele>410.1</ele>
        <time>2013-11-16T08:49:16.000Z</time>
      </trkpt>
      <trkpt lat="42.98708" lon="1.95121">
        <ele>411.1</ele>
        <time>2013-11-16T08:49:12.000Z</time>
      </trkpt>
      <trkpt lat="42.98703" lon="1.95133">
        <ele>410.6</ele>
        <time>2013-11-16T08:49:09.000Z</time>
      </trkpt>
      <trkpt lat="42.98682" lon="1.95162">
        <ele>411.1</ele>
        <time>2013-11-16T08:49:01.000Z</time>
      </trkpt>
      <trkpt lat="42.9868" lon="1.95167">
        <ele>411.1</ele>
        <time>2013-11-16T08:49:00.000Z</time>
      </trkpt>
      <trkpt lat="42.98678" lon="1.95172">
        <ele>412.1</ele>
        <time>2013-11-16T08:48:59.000Z</time>
      </trkpt>
      <trkpt lat="42.98666" lon="1.95215">
        <ele>410.6</ele>
        <time>2013-11-16T08:48:50.000Z</time>
      </trkpt>
      <trkpt lat="42.98663" lon="1.95227">
        <ele>410.1</ele>
        <time>2013-11-16T08:48:48.000Z</time>
      </trkpt>
      <trkpt lat="42.98634" lon="1.95281">
        <ele>411.6</ele>
        <time>2013-11-16T08:48:38.000Z</time>
      </trkpt>
      <trkpt lat="42.98629" lon="1.95326">
        <ele>411.1</ele>
        <time>2013-11-16T08:48:31.000Z</time>
      </trkpt>
      <trkpt lat="42.98612" lon="1.95365">
        <ele>413.5</ele>
        <time>2013-11-16T08:48:23.000Z</time>
      </trkpt>
      <trkpt lat="42.98611" lon="1.95377">
        <ele>412.5</ele>
        <time>2013-11-16T08:48:21.000Z</time>
      </trkpt>
      <trkpt lat="42.98608" lon="1.954">
        <ele>412.1</ele>
        <time>2013-11-16T08:48:15.000Z</time>
      </trkpt>
      <trkpt lat="42.98608" lon="1.95409">
        <ele>411.6</ele>
        <time>2013-11-16T08:48:12.000Z</time>
      </trkpt>
      <trkpt lat="42.98599" lon="1.95434">
        <ele>412.5</ele>
        <time>2013-11-16T08:48:04.000Z</time>
      </trkpt>
      <trkpt lat="42.98595" lon="1.95459">
        <ele>411.1</ele>
        <time>2013-11-16T08:47:56.000Z</time>
      </trkpt>
      <trkpt lat="42.98589" lon="1.95466">
        <ele>411.1</ele>
        <time>2013-11-16T08:47:53.000Z</time>
      </trkpt>
      <trkpt lat="42.98574" lon="1.95477">
        <ele>412.5</ele>
        <time>2013-11-16T08:47:47.000Z</time>
      </trkpt>
      <trkpt lat="42.98566" lon="1.95477">
        <ele>413</ele>
        <time>2013-11-16T08:47:45.000Z</time>
      </trkpt>
      <trkpt lat="42.98553" lon="1.95474">
        <ele>415.4</ele>
        <time>2013-11-16T08:47:41.000Z</time>
      </trkpt>
      <trkpt lat="42.98539" lon="1.95469">
        <ele>415.9</ele>
        <time>2013-11-16T08:47:37.000Z</time>
      </trkpt>
      <trkpt lat="42.98533" lon="1.95467">
        <ele>413</ele>
        <time>2013-11-16T08:47:32.000Z</time>
      </trkpt>
      <trkpt lat="42.98523" lon="1.9547">
        <ele>414.5</ele>
        <time>2013-11-16T08:47:25.000Z</time>
      </trkpt>
      <trkpt lat="42.98514" lon="1.95473">
        <ele>413</ele>
        <time>2013-11-16T08:47:20.000Z</time>
      </trkpt>
      <trkpt lat="42.98512" lon="1.95473">
        <ele>412.5</ele>
        <time>2013-11-16T08:47:19.000Z</time>
      </trkpt>
      <trkpt lat="42.98509" lon="1.95474">
        <ele>412.1</ele>
        <time>2013-11-16T08:47:17.000Z</time>
      </trkpt>
      <trkpt lat="42.985" lon="1.95476">
        <ele>412.1</ele>
        <time>2013-11-16T08:47:11.000Z</time>
      </trkpt>
      <trkpt lat="42.98479" lon="1.95475">
        <ele>412.1</ele>
        <time>2013-11-16T08:47:00.000Z</time>
      </trkpt>
      <trkpt lat="42.98473" lon="1.95473">
        <ele>413.5</ele>
        <time>2013-11-16T08:46:57.000Z</time>
      </trkpt>
      <trkpt lat="42.98467" lon="1.95468">
        <ele>414.5</ele>
        <time>2013-11-16T08:46:53.000Z</time>
      </trkpt>
      <trkpt lat="42.98462" lon="1.9546">
        <ele>413</ele>
        <time>2013-11-16T08:46:38.000Z</time>
      </trkpt>
      <trkpt lat="42.98461" lon="1.95458">
        <ele>414.5</ele>
        <time>2013-11-16T08:46:36.000Z</time>
      </trkpt>
      <trkpt lat="42.98459" lon="1.95436">
        <ele>413.5</ele>
        <time>2013-11-16T08:46:29.000Z</time>
      </trkpt>
      <trkpt lat="42.98454" lon="1.95402">
        <ele>412.5</ele>
        <time>2013-11-16T08:46:21.000Z</time>
      </trkpt>
      <trkpt lat="42.98454" lon="1.95393">
        <ele>413.5</ele>
        <time>2013-11-16T08:46:18.000Z</time>
      </trkpt>
      <trkpt lat="42.98459" lon="1.95376">
        <ele>412.5</ele>
        <time>2013-11-16T08:46:12.000Z</time>
      </trkpt>
      <trkpt lat="42.98462" lon="1.95355">
        <ele>412.5</ele>
        <time>2013-11-16T08:46:06.000Z</time>
      </trkpt>
      <trkpt lat="42.9847" lon="1.95331">
        <ele>413.5</ele>
        <time>2013-11-16T08:45:57.000Z</time>
      </trkpt>
      <trkpt lat="42.98469" lon="1.9532">
        <ele>414</ele>
        <time>2013-11-16T08:45:51.000Z</time>
      </trkpt>
      <trkpt lat="42.98473" lon="1.95294">
        <ele>413.5</ele>
        <time>2013-11-16T08:45:42.000Z</time>
      </trkpt>
      <trkpt lat="42.98473" lon="1.95291">
        <ele>414</ele>
        <time>2013-11-16T08:45:41.000Z</time>
      </trkpt>
      <trkpt lat="42.98474" lon="1.95273">
        <ele>412.5</ele>
        <time>2013-11-16T08:45:35.000Z</time>
      </trkpt>
      <trkpt lat="42.98482" lon="1.95248">
        <ele>412.5</ele>
        <time>2013-11-16T08:45:28.000Z</time>
      </trkpt>
      <trkpt lat="42.98481" lon="1.95245">
        <ele>411.6</ele>
        <time>2013-11-16T08:45:27.000Z</time>
      </trkpt>
      <trkpt lat="42.9848" lon="1.95243">
        <ele>412.1</ele>
        <time>2013-11-16T08:45:26.000Z</time>
      </trkpt>
      <trkpt lat="42.9848" lon="1.95234">
        <ele>413.5</ele>
        <time>2013-11-16T08:45:23.000Z</time>
      </trkpt>
      <trkpt lat="42.98485" lon="1.95213">
        <ele>413.5</ele>
        <time>2013-11-16T08:45:18.000Z</time>
      </trkpt>
      <trkpt lat="42.98487" lon="1.95195">
        <ele>413.5</ele>
        <time>2013-11-16T08:45:14.000Z</time>
      </trkpt>
      <trkpt lat="42.98489" lon="1.95186">
        <ele>415</ele>
        <time>2013-11-16T08:45:12.000Z</time>
      </trkpt>
      <trkpt lat="42.9849" lon="1.95177">
        <ele>414.5</ele>
        <time>2013-11-16T08:45:10.000Z</time>
      </trkpt>
      <trkpt lat="42.9849" lon="1.95172">
        <ele>415.9</ele>
        <time>2013-11-16T08:45:09.000Z</time>
      </trkpt>
      <trkpt lat="42.98491" lon="1.95161">
        <ele>415.4</ele>
        <time>2013-11-16T08:45:06.000Z</time>
      </trkpt>
      <trkpt lat="42.98491" lon="1.95156">
        <ele>415.9</ele>
        <time>2013-11-16T08:45:05.000Z</time>
      </trkpt>
      <trkpt lat="42.98491" lon="1.95127">
        <ele>415</ele>
        <time>2013-11-16T08:44:59.000Z</time>
      </trkpt>
      <trkpt lat="42.98491" lon="1.95094">
        <ele>414</ele>
        <time>2013-11-16T08:44:51.000Z</time>
      </trkpt>
      <trkpt lat="42.98482" lon="1.95061">
        <ele>412.5</ele>
        <time>2013-11-16T08:44:41.000Z</time>
      </trkpt>
      <trkpt lat="42.98482" lon="1.95023">
        <ele>413.5</ele>
        <time>2013-11-16T08:44:32.000Z</time>
      </trkpt>
      <trkpt lat="42.98483" lon="1.95019">
        <ele>414</ele>
        <time>2013-11-16T08:44:31.000Z</time>
      </trkpt>
      <trkpt lat="42.98483" lon="1.95017">
        <ele>414</ele>
        <time>2013-11-16T08:44:30.000Z</time>
      </trkpt>
      <trkpt lat="42.98483" lon="1.95014">
        <ele>413</ele>
        <time>2013-11-16T08:44:29.000Z</time>
      </trkpt>
      <trkpt lat="42.98486" lon="1.94983">
        <ele>413.5</ele>
        <time>2013-11-16T08:44:20.000Z</time>
      </trkpt>
      <trkpt lat="42.98487" lon="1.94923">
        <ele>414</ele>
        <time>2013-11-16T08:44:09.000Z</time>
      </trkpt>
      <trkpt lat="42.98491" lon="1.94864">
        <ele>415</ele>
        <time>2013-11-16T08:43:58.000Z</time>
      </trkpt>
      <trkpt lat="42.98492" lon="1.94858">
        <ele>413.5</ele>
        <time>2013-11-16T08:43:57.000Z</time>
      </trkpt>
      <trkpt lat="42.98492" lon="1.94852">
        <ele>413.5</ele>
        <time>2013-11-16T08:43:56.000Z</time>
      </trkpt>
      <trkpt lat="42.98494" lon="1.94846">
        <ele>414</ele>
        <time>2013-11-16T08:43:55.000Z</time>
      </trkpt>
      <trkpt lat="42.98495" lon="1.94841">
        <ele>415</ele>
        <time>2013-11-16T08:43:54.000Z</time>
      </trkpt>
      <trkpt lat="42.98496" lon="1.94837">
        <ele>414.5</ele>
        <time>2013-11-16T08:43:53.000Z</time>
      </trkpt>
      <trkpt lat="42.98497" lon="1.94833">
        <ele>413.5</ele>
        <time>2013-11-16T08:43:52.000Z</time>
      </trkpt>
      <trkpt lat="42.98497" lon="1.94803">
        <ele>413</ele>
        <time>2013-11-16T08:43:46.000Z</time>
      </trkpt>
      <trkpt lat="42.985" lon="1.94789">
        <ele>413.5</ele>
        <time>2013-11-16T08:43:43.000Z</time>
      </trkpt>
      <trkpt lat="42.98505" lon="1.94752">
        <ele>414</ele>
        <time>2013-11-16T08:43:35.000Z</time>
      </trkpt>
      <trkpt lat="42.98502" lon="1.94707">
        <ele>413</ele>
        <time>2013-11-16T08:43:26.000Z</time>
      </trkpt>
      <trkpt lat="42.98511" lon="1.94655">
        <ele>414.5</ele>
        <time>2013-11-16T08:43:17.000Z</time>
      </trkpt>
      <trkpt lat="42.98513" lon="1.94651">
        <ele>414</ele>
        <time>2013-11-16T08:43:16.000Z</time>
      </trkpt>
      <trkpt lat="42.98515" lon="1.94648">
        <ele>412.5</ele>
        <time>2013-11-16T08:43:15.000Z</time>
      </trkpt>
      <trkpt lat="42.98517" lon="1.94643">
        <ele>415</ele>
        <time>2013-11-16T08:43:14.000Z</time>
      </trkpt>
      <trkpt lat="42.98518" lon="1.9462">
        <ele>414.5</ele>
        <time>2013-11-16T08:43:09.000Z</time>
      </trkpt>
      <trkpt lat="42.98518" lon="1.94614">
        <ele>414</ele>
        <time>2013-11-16T08:43:08.000Z</time>
      </trkpt>
      <trkpt lat="42.98518" lon="1.9461">
        <ele>413.5</ele>
        <time>2013-11-16T08:43:07.000Z</time>
      </trkpt>
      <trkpt lat="42.98518" lon="1.94605">
        <ele>412.5</ele>
        <time>2013-11-16T08:43:06.000Z</time>
      </trkpt>
      <trkpt lat="42.98519" lon="1.946">
        <ele>413.5</ele>
        <time>2013-11-16T08:43:05.000Z</time>
      </trkpt>
      <trkpt lat="42.9852" lon="1.94595">
        <ele>414</ele>
        <time>2013-11-16T08:43:04.000Z</time>
      </trkpt>
      <trkpt lat="42.98521" lon="1.9459">
        <ele>413</ele>
        <time>2013-11-16T08:43:03.000Z</time>
      </trkpt>
      <trkpt lat="42.98522" lon="1.94586">
        <ele>414</ele>
        <time>2013-11-16T08:43:02.000Z</time>
      </trkpt>
      <trkpt lat="42.98526" lon="1.94582">
        <ele>414</ele>
        <time>2013-11-16T08:43:01.000Z</time>
      </trkpt>
      <trkpt lat="42.98527" lon="1.94577">
        <ele>413.5</ele>
        <time>2013-11-16T08:43:00.000Z</time>
      </trkpt>
      <trkpt lat="42.98528" lon="1.94571">
        <ele>414</ele>
        <time>2013-11-16T08:42:59.000Z</time>
      </trkpt>
      <trkpt lat="42.9853" lon="1.94565">
        <ele>414.5</ele>
        <time>2013-11-16T08:42:58.000Z</time>
      </trkpt>
      <trkpt lat="42.98531" lon="1.94559">
        <ele>413.5</ele>
        <time>2013-11-16T08:42:57.000Z</time>
      </trkpt>
      <trkpt lat="42.98532" lon="1.94555">
        <ele>413</ele>
        <time>2013-11-16T08:42:56.000Z</time>
      </trkpt>
      <trkpt lat="42.98534" lon="1.9455">
        <ele>414.5</ele>
        <time>2013-11-16T08:42:55.000Z</time>
      </trkpt>
      <trkpt lat="42.98535" lon="1.94547">
        <ele>415</ele>
        <time>2013-11-16T08:42:54.000Z</time>
      </trkpt>
      <trkpt lat="42.98537" lon="1.94543">
        <ele>414.5</ele>
        <time>2013-11-16T08:42:53.000Z</time>
      </trkpt>
      <trkpt lat="42.98538" lon="1.94539">
        <ele>414.5</ele>
        <time>2013-11-16T08:42:52.000Z</time>
      </trkpt>
      <trkpt lat="42.98538" lon="1.94534">
        <ele>415</ele>
        <time>2013-11-16T08:42:51.000Z</time>
      </trkpt>
      <trkpt lat="42.98539" lon="1.94528">
        <ele>415</ele>
        <time>2013-11-16T08:42:50.000Z</time>
      </trkpt>
      <trkpt lat="42.9854" lon="1.94522">
        <ele>414.5</ele>
        <time>2013-11-16T08:42:49.000Z</time>
      </trkpt>
      <trkpt lat="42.98541" lon="1.94516">
        <ele>414.5</ele>
        <time>2013-11-16T08:42:48.000Z</time>
      </trkpt>
      <trkpt lat="42.9854" lon="1.9451">
        <ele>414</ele>
        <time>2013-11-16T08:42:47.000Z</time>
      </trkpt>
      <trkpt lat="42.9854" lon="1.94505">
        <ele>414.5</ele>
        <time>2013-11-16T08:42:46.000Z</time>
      </trkpt>
      <trkpt lat="42.98541" lon="1.94499">
        <ele>414</ele>
        <time>2013-11-16T08:42:45.000Z</time>
      </trkpt>
      <trkpt lat="42.98545" lon="1.94486">
        <ele>415</ele>
        <time>2013-11-16T08:42:43.000Z</time>
      </trkpt>
      <trkpt lat="42.98548" lon="1.94472">
        <ele>415.9</ele>
        <time>2013-11-16T08:42:41.000Z</time>
      </trkpt>
      <trkpt lat="42.98552" lon="1.94461">
        <ele>415</ele>
        <time>2013-11-16T08:42:39.000Z</time>
      </trkpt>
      <trkpt lat="42.98565" lon="1.94405">
        <ele>413.5</ele>
        <time>2013-11-16T08:42:28.000Z</time>
      </trkpt>
      <trkpt lat="42.98586" lon="1.94372">
        <ele>414.5</ele>
        <time>2013-11-16T08:42:20.000Z</time>
      </trkpt>
      <trkpt lat="42.98598" lon="1.9435">
        <ele>415</ele>
        <time>2013-11-16T08:42:15.000Z</time>
      </trkpt>
      <trkpt lat="42.98603" lon="1.94317">
        <ele>414</ele>
        <time>2013-11-16T08:42:08.000Z</time>
      </trkpt>
      <trkpt lat="42.98604" lon="1.94313">
        <ele>414</ele>
        <time>2013-11-16T08:42:07.000Z</time>
      </trkpt>
      <trkpt lat="42.98612" lon="1.94303">
        <ele>415.9</ele>
        <time>2013-11-16T08:42:03.000Z</time>
      </trkpt>
      <trkpt lat="42.98614" lon="1.943">
        <ele>416.9</ele>
        <time>2013-11-16T08:42:02.000Z</time>
      </trkpt>
      <trkpt lat="42.98612" lon="1.94285">
        <ele>415.9</ele>
        <time>2013-11-16T08:41:58.000Z</time>
      </trkpt>
      <trkpt lat="42.98611" lon="1.9428">
        <ele>415.4</ele>
        <time>2013-11-16T08:41:57.000Z</time>
      </trkpt>
      <trkpt lat="42.98609" lon="1.94275">
        <ele>415.4</ele>
        <time>2013-11-16T08:41:56.000Z</time>
      </trkpt>
      <trkpt lat="42.98554" lon="1.94207">
        <ele>415.4</ele>
        <time>2013-11-16T08:41:41.000Z</time>
      </trkpt>
      <trkpt lat="42.98489" lon="1.94127">
        <ele>415.4</ele>
        <time>2013-11-16T08:41:23.000Z</time>
      </trkpt>
      <trkpt lat="42.98435" lon="1.9406">
        <ele>415.9</ele>
        <time>2013-11-16T08:41:07.000Z</time>
      </trkpt>
      <trkpt lat="42.98376" lon="1.93985">
        <ele>415.9</ele>
        <time>2013-11-16T08:40:48.000Z</time>
      </trkpt>
      <trkpt lat="42.98325" lon="1.93922">
        <ele>415.9</ele>
        <time>2013-11-16T08:40:31.000Z</time>
      </trkpt>
      <trkpt lat="42.98302" lon="1.93878">
        <ele>416.4</ele>
        <time>2013-11-16T08:39:58.000Z</time>
      </trkpt>
      <trkpt lat="42.98295" lon="1.93877">
        <ele>415.4</ele>
        <time>2013-11-16T08:39:51.000Z</time>
      </trkpt>
      <trkpt lat="42.98293" lon="1.93868">
        <ele>415.9</ele>
        <time>2013-11-16T08:39:46.000Z</time>
      </trkpt>
      <trkpt lat="42.9828" lon="1.93863">
        <ele>416.9</ele>
        <time>2013-11-16T08:39:39.000Z</time>
      </trkpt>
      <trkpt lat="42.98277" lon="1.93862">
        <ele>416.9</ele>
        <time>2013-11-16T08:39:38.000Z</time>
      </trkpt>
      <trkpt lat="42.98271" lon="1.93861">
        <ele>419.8</ele>
        <time>2013-11-16T08:39:34.000Z</time>
      </trkpt>
      <trkpt lat="42.98265" lon="1.93868">
        <ele>420.2</ele>
        <time>2013-11-16T08:39:29.000Z</time>
      </trkpt>
      <trkpt lat="42.98325" lon="1.93782">
        <ele>160.2</ele>
        <time>2013-11-16T17:22:44.000Z</time>
      </trkpt>
      <trkpt lat="42.98325" lon="1.93782">
        <ele>163.6</ele>
        <time>2013-11-16T17:22:43.000Z</time>
      </trkpt>
      <trkpt lat="42.98325" lon="1.93782">
        <ele>163.6</ele>
        <time>2013-11-16T17:22:42.000Z</time>
      </trkpt>
      <trkpt lat="42.98325" lon="1.93782">
        <ele>160.2</ele>
        <time>2013-11-16T17:22:16.000Z</time>
      </trkpt>
      <trkpt lat="42.98325" lon="1.93782">
        <ele>161.6</ele>
        <time>2013-11-16T17:22:15.000Z</time>
      </trkpt>
      <trkpt lat="42.98325" lon="1.93782">
        <ele>159.7</ele>
        <time>2013-11-16T17:22:14.000Z</time>
      </trkpt>
      <trkpt lat="42.98325" lon="1.93782">
        <ele>161.2</ele>
        <time>2013-11-16T17:22:12.000Z</time>
      </trkpt>
      <trkpt lat="42.98325" lon="1.93782">
        <ele>159.7</ele>
        <time>2013-11-16T17:22:04.000Z</time>
      </trkpt>
      <trkpt lat="42.98325" lon="1.93782">
        <ele>161.2</ele>
        <time>2013-11-16T17:22:02.000Z</time>
      </trkpt>
      <trkpt lat="42.98325" lon="1.93782">
        <ele>161.2</ele>
        <time>2013-11-16T17:22:01.000Z</time>
      </trkpt>
      <trkpt lat="42.98325" lon="1.93782">
        <ele>404.4</ele>
        <time>2013-11-16T17:22:00.000Z</time>
      </trkpt>
      <trkpt lat="42.98325" lon="1.93782">
        <ele>397.2</ele>
        <time>2013-11-16T14:25:52.000Z</time>
      </trkpt>
      <trkpt lat="42.98325" lon="1.93782">
        <ele>400.5</ele>
        <time>2013-11-16T14:25:50.000Z</time>
      </trkpt>
      <trkpt lat="42.98326" lon="1.93783">
        <ele>400.5</ele>
        <time>2013-11-16T14:25:49.000Z</time>
      </trkpt>
      <trkpt lat="42.9833" lon="1.93782">
        <ele>399.6</ele>
        <time>2013-11-16T14:25:39.000Z</time>
      </trkpt>
      <trkpt lat="42.98341" lon="1.93754">
        <ele>400.5</ele>
        <time>2013-11-16T14:25:29.000Z</time>
      </trkpt>
      <trkpt lat="42.98342" lon="1.93749">
        <ele>401.5</ele>
        <time>2013-11-16T14:25:28.000Z</time>
      </trkpt>
      <trkpt lat="42.98348" lon="1.93723">
        <ele>401.5</ele>
        <time>2013-11-16T14:25:24.000Z</time>
      </trkpt>
      <trkpt lat="42.98349" lon="1.93716">
        <ele>401.5</ele>
        <time>2013-11-16T14:25:23.000Z</time>
      </trkpt>
      <trkpt lat="42.98353" lon="1.93662">
        <ele>403.9</ele>
        <time>2013-11-16T14:25:15.000Z</time>
      </trkpt>
      <trkpt lat="42.98353" lon="1.93649">
        <ele>404.4</ele>
        <time>2013-11-16T14:25:13.000Z</time>
      </trkpt>
      <trkpt lat="42.98353" lon="1.93637">
        <ele>404.4</ele>
        <time>2013-11-16T14:25:11.000Z</time>
      </trkpt>
      <trkpt lat="42.98362" lon="1.93577">
        <ele>404.4</ele>
        <time>2013-11-16T14:24:59.000Z</time>
      </trkpt>
      <trkpt lat="42.98366" lon="1.93535">
        <ele>404.9</ele>
        <time>2013-11-16T14:24:49.000Z</time>
      </trkpt>
    </trkseg>
  </trk>
</gpx>